DAL888X NSTU-MZBZ

Flight info

Callsign DAL888X
Flight time 11h 15m
Altitude 35000
Route 14W70 DCT KINAG DCT 13S160W 09S150W/N0475F370 04S140W 01N130W/N0470F390 06N120W 10N110W 14N100W DCT HUX UJ9 IZT UJ47 TGZ DCT DASMO DASMO1A
Aircraft A332/H-SDE3GHIJ2J3J5M1RVWXY/LB2D1

Departure

Time 2026-05-05 09:17
Airport Pago Pago International Airport (NSTU)

Arrival

Time 2026-05-05 20:32
Airport Philip S. W. Goldson International Airport (MZBZ)
Time Latitude Longitude Altitude Speed Heading
2026-05-05 08:55 -14.32795 -170.71280 33 ft 0 kts 184°
2026-05-05 09:13 -14.32813 -170.71261 32 ft 12 kts 98°
2026-05-05 09:13 -14.32846 -170.71159 32 ft 25 kts 156°
2026-05-05 09:14 -14.33059 -170.70999 27 ft 45 kts 139°
2026-05-05 09:14 -14.33082 -170.70802 24 ft 31 kts 57°
2026-05-05 09:14 -14.32948 -170.70572 23 ft 40 kts 59°
2026-05-05 09:14 -14.32821 -170.70341 22 ft 33 kts 58°
2026-05-05 09:15 -14.32684 -170.70194 19 ft 17 kts 47°
2026-05-05 09:15 -14.32717 -170.70163 20 ft 10 kts 214°
2026-05-05 09:15 -14.32741 -170.70193 20 ft 0 kts 238°
2026-05-05 09:16 -14.32769 -170.70239 20 ft 25 kts 238°
2026-05-05 09:16 -14.32941 -170.70539 23 ft 72 kts 240°
2026-05-05 09:16 -14.33270 -170.71125 26 ft 117 kts 240°
2026-05-05 09:17 -14.33748 -170.71983 44 ft 159 kts 240°
2026-05-05 09:17 -14.34352 -170.73056 294 ft 180 kts 239°
2026-05-05 09:17 -14.35019 -170.74221 586 ft 196 kts 239°
2026-05-05 09:17 -14.35803 -170.75402 1010 ft 204 kts 225°
2026-05-05 09:18 -14.36929 -170.76251 1541 ft 204 kts 202°
2026-05-05 09:18 -14.38323 -170.76572 2007 ft 208 kts 177°
2026-05-05 09:18 -14.39706 -170.76266 2665 ft 205 kts 153°
2026-05-05 09:18 -14.40812 -170.75424 3128 ft 211 kts 128°
2026-05-05 09:19 -14.41460 -170.74066 3537 ft 220 kts 96°
2026-05-05 09:19 -14.41320 -170.72475 3963 ft 230 kts 64°
2026-05-05 09:19 -14.40414 -170.71143 4652 ft 229 kts 44°
2026-05-05 09:19 -14.39224 -170.70020 5163 ft 240 kts 34°
2026-05-05 09:20 -14.37835 -170.68996 5704 ft 251 kts 34°
2026-05-05 09:20 -14.36437 -170.67915 6399 ft 254 kts 36°
2026-05-05 09:20 -14.35027 -170.66845 7125 ft 255 kts 32°
2026-05-05 09:20 -14.33558 -170.65839 7819 ft 257 kts 31°
2026-05-05 09:21 -14.32070 -170.64850 8519 ft 257 kts 32°
2026-05-05 09:21 -14.30752 -170.63623 9153 ft 261 kts 50°
2026-05-05 09:21 -14.29782 -170.62139 9756 ft 262 kts 51°
2026-05-05 09:21 -14.28696 -170.60579 10210 ft 272 kts 52°
2026-05-05 09:22 -14.27701 -170.58913 10725 ft 279 kts 61°
2026-05-05 09:22 -14.26944 -170.57063 11293 ft 284 kts 64°
2026-05-05 09:22 -14.26180 -170.55162 11705 ft 293 kts 62°
2026-05-05 09:22 -14.25239 -170.53274 12073 ft 302 kts 55°
2026-05-05 09:23 -14.24176 -170.51375 12531 ft 311 kts 57°
2026-05-05 09:23 -14.23160 -170.49381 12973 ft 321 kts 59°
2026-05-05 09:23 -14.22137 -170.47290 13422 ft 330 kts 59°
2026-05-05 09:23 -14.21108 -170.45146 13867 ft 339 kts 60°
2026-05-05 09:24 -14.20063 -170.42940 14314 ft 348 kts 60°
2026-05-05 09:24 -14.19004 -170.40687 14758 ft 356 kts 60°
2026-05-05 09:24 -14.17918 -170.38367 15204 ft 364 kts 60°
2026-05-05 09:24 -14.16813 -170.36004 15648 ft 372 kts 60°
2026-05-05 09:25 -14.15693 -170.33608 16086 ft 380 kts 60°
2026-05-05 09:25 -14.14533 -170.31134 16519 ft 387 kts 60°
2026-05-05 09:25 -14.13360 -170.28624 16951 ft 395 kts 60°
2026-05-05 09:25 -14.12163 -170.26062 17383 ft 402 kts 60°
2026-05-05 09:26 -14.10953 -170.23469 17813 ft 409 kts 60°
2026-05-05 09:26 -14.09716 -170.20819 18244 ft 415 kts 60°
2026-05-05 09:26 -14.08460 -170.18126 18696 ft 421 kts 60°
2026-05-05 09:26 -14.07195 -170.15413 19175 ft 426 kts 60°
2026-05-05 09:27 -14.05901 -170.12639 19659 ft 430 kts 60°
2026-05-05 09:27 -14.04608 -170.09865 20139 ft 434 kts 60°
2026-05-05 09:27 -14.03299 -170.07060 20617 ft 438 kts 60°
2026-05-05 09:27 -14.01982 -170.04235 21159 ft 439 kts 62°
2026-05-05 09:28 -14.01027 -170.01265 21742 ft 443 kts 80°
2026-05-05 09:28 -14.01067 -169.98121 22401 ft 442 kts 98°
2026-05-05 09:28 -14.01695 -169.95053 23035 ft 439 kts 102°
2026-05-05 09:28 -14.02437 -169.91985 23448 ft 441 kts 103°
2026-05-05 09:29 -14.03231 -169.88942 23825 ft 443 kts 104°
2026-05-05 09:29 -14.04058 -169.85903 24205 ft 444 kts 104°
2026-05-05 09:29 -14.04902 -169.82849 24580 ft 446 kts 105°
2026-05-05 09:29 -14.05752 -169.79804 24852 ft 450 kts 105°
2026-05-05 09:30 -14.06617 -169.76713 25114 ft 454 kts 105°
2026-05-05 09:30 -14.07486 -169.73611 25373 ft 458 kts 104°
2026-05-05 09:30 -14.08375 -169.70442 25638 ft 462 kts 104°
2026-05-05 09:30 -14.09268 -169.67262 25901 ft 466 kts 104°
2026-05-05 09:31 -14.10166 -169.64062 26164 ft 469 kts 104°
2026-05-05 09:31 -14.11074 -169.60827 26428 ft 473 kts 104°
2026-05-05 09:31 -14.11988 -169.57573 26691 ft 477 kts 104°
2026-05-05 09:31 -14.12906 -169.54305 26953 ft 480 kts 104°
2026-05-05 09:32 -14.13833 -169.51002 27216 ft 483 kts 104°
2026-05-05 09:32 -14.14770 -169.47667 27479 ft 487 kts 104°
2026-05-05 09:32 -14.15712 -169.44314 27744 ft 490 kts 104°
2026-05-05 09:32 -14.16655 -169.40954 28007 ft 493 kts 104°
2026-05-05 09:33 -14.17607 -169.37566 28272 ft 496 kts 104°
2026-05-05 09:33 -14.18563 -169.34158 28534 ft 498 kts 104°
2026-05-05 09:33 -14.19510 -169.30737 28788 ft 501 kts 104°
2026-05-05 09:33 -14.20467 -169.27294 29041 ft 504 kts 104°
2026-05-05 09:34 -14.21441 -169.23816 29321 ft 506 kts 104°
2026-05-05 09:34 -14.22414 -169.20348 29646 ft 506 kts 104°
2026-05-05 09:34 -14.23391 -169.16869 29973 ft 507 kts 104°
2026-05-05 09:34 -14.24365 -169.13397 30328 ft 507 kts 104°
2026-05-05 09:35 -14.25337 -169.09935 30700 ft 506 kts 104°
2026-05-05 09:35 -14.27276 -169.03030 31443 ft 503 kts 105°
2026-05-05 09:35 -14.28249 -168.99565 31819 ft 501 kts 105°
2026-05-05 09:36 -14.29200 -168.96178 32189 ft 498 kts 105°
2026-05-05 09:36 -14.30157 -168.92773 32535 ft 497 kts 105°
2026-05-05 09:36 -14.31113 -168.89367 32860 ft 495 kts 105°
2026-05-05 09:36 -14.32061 -168.85991 33184 ft 493 kts 105°
2026-05-05 09:37 -14.33011 -168.82610 33449 ft 492 kts 105°
2026-05-05 09:37 -14.33958 -168.79236 33704 ft 492 kts 105°
2026-05-05 09:37 -14.34909 -168.75848 33962 ft 491 kts 105°
2026-05-05 09:37 -14.35852 -168.72493 34219 ft 489 kts 105°
2026-05-05 09:38 -14.36788 -168.69159 34475 ft 488 kts 105°
2026-05-05 09:38 -14.37726 -168.65819 34732 ft 486 kts 105°
2026-05-05 09:38 -14.38661 -168.62489 34934 ft 486 kts 105°
2026-05-05 09:38 -14.39597 -168.59156 34884 ft 492 kts 105°
2026-05-05 09:39 -14.41519 -168.52312 34911 ft 501 kts 105°
2026-05-05 09:39 -14.43470 -168.45364 34900 ft 512 kts 106°
2026-05-05 09:40 -14.45457 -168.38290 34900 ft 517 kts 106°
2026-05-05 09:40 -14.47438 -168.31194 34901 ft 517 kts 105°
2026-05-05 09:41 -14.49409 -168.24124 34899 ft 516 kts 105°
2026-05-05 09:41 -14.51393 -168.17053 34902 ft 516 kts 105°
2026-05-05 09:42 -14.53383 -168.09966 34905 ft 516 kts 105°
2026-05-05 09:42 -14.55379 -168.02858 34908 ft 515 kts 105°
2026-05-05 09:43 -14.57365 -167.95784 34910 ft 516 kts 106°
2026-05-05 09:43 -14.59353 -167.88704 34910 ft 516 kts 106°
2026-05-05 09:44 -14.61345 -167.81611 34910 ft 515 kts 106°
2026-05-05 09:44 -14.63342 -167.74499 34910 ft 515 kts 106°
2026-05-05 09:45 -14.65332 -167.67412 34911 ft 515 kts 106°
2026-05-05 09:45 -14.67326 -167.60312 34910 ft 515 kts 106°
2026-05-05 09:46 -14.69325 -167.53197 34910 ft 515 kts 106°
2026-05-05 09:46 -14.71314 -167.46111 34911 ft 515 kts 106°
2026-05-05 09:47 -14.73302 -167.39033 34910 ft 515 kts 106°
2026-05-05 09:47 -14.75284 -167.31950 34908 ft 515 kts 105°
2026-05-05 09:48 -14.77263 -167.24838 34910 ft 515 kts 105°
2026-05-05 09:48 -14.79251 -167.17751 34909 ft 515 kts 105°
2026-05-05 09:49 -14.81243 -167.10656 34910 ft 515 kts 106°
2026-05-05 09:49 -14.83242 -167.03539 34910 ft 516 kts 106°
2026-05-05 09:50 -14.85229 -166.96463 34911 ft 516 kts 106°
2026-05-05 09:50 -14.87220 -166.89374 34912 ft 516 kts 106°
2026-05-05 09:51 -14.89214 -166.82272 34913 ft 516 kts 106°
2026-05-05 09:51 -14.91212 -166.75157 34913 ft 516 kts 106°
2026-05-05 09:52 -14.93203 -166.68069 34913 ft 516 kts 106°
2026-05-05 09:52 -14.95198 -166.60964 34912 ft 516 kts 106°
2026-05-05 09:53 -14.97197 -166.53842 34912 ft 516 kts 106°
2026-05-05 09:53 -14.99191 -166.46744 34912 ft 516 kts 106°
2026-05-05 09:54 -15.01181 -166.39656 34911 ft 516 kts 106°
2026-05-05 09:54 -15.03169 -166.32564 34909 ft 516 kts 105°
2026-05-05 09:55 -15.05128 -166.25514 34910 ft 516 kts 106°
2026-05-05 09:55 -15.07094 -166.18506 34914 ft 516 kts 106°
2026-05-05 09:56 -15.09090 -166.11399 34922 ft 517 kts 106°
2026-05-05 09:56 -15.11101 -166.04263 34916 ft 517 kts 106°
2026-05-05 09:57 -15.13103 -165.97162 34916 ft 516 kts 106°
2026-05-05 09:57 -15.15096 -165.90066 34914 ft 516 kts 106°
2026-05-05 09:58 -15.17092 -165.82961 34914 ft 516 kts 106°
2026-05-05 09:58 -15.19093 -165.75837 34913 ft 516 kts 106°
2026-05-05 09:59 -15.21091 -165.68721 34914 ft 516 kts 106°
2026-05-05 09:59 -15.23085 -165.61621 34913 ft 516 kts 106°
2026-05-05 10:00 -15.25089 -165.54485 34914 ft 516 kts 106°
2026-05-05 10:00 -15.27079 -165.47398 34914 ft 514 kts 106°
2026-05-05 10:01 -15.29071 -165.40301 34914 ft 515 kts 106°
2026-05-05 10:01 -15.31060 -165.33212 34912 ft 515 kts 106°
2026-05-05 10:02 -15.33032 -165.26107 34913 ft 515 kts 106°
2026-05-05 10:02 -15.35023 -165.19011 34913 ft 515 kts 106°
2026-05-05 10:03 -15.37013 -165.11926 34914 ft 513 kts 106°
2026-05-05 10:03 -15.39014 -165.04832 34921 ft 514 kts 107°
2026-05-05 10:04 -15.39763 -165.01240 34930 ft 512 kts 92°
2026-05-05 10:04 -15.39526 -164.97607 34947 ft 509 kts 74°
2026-05-05 10:04 -15.38219 -164.94242 34956 ft 506 kts 57°
2026-05-05 10:04 -15.36363 -164.91153 34933 ft 507 kts 58°
2026-05-05 10:05 -15.33122 -164.84718 34937 ft 506 kts 61°
2026-05-05 10:05 -15.29961 -164.78193 34943 ft 506 kts 62°
2026-05-05 10:06 -15.26832 -164.71689 34940 ft 507 kts 62°
2026-05-05 10:06 -15.23703 -164.65179 34941 ft 507 kts 62°
2026-05-05 10:07 -15.20565 -164.58651 34941 ft 507 kts 62°
2026-05-05 10:07 -15.17435 -164.52140 34941 ft 507 kts 62°
2026-05-05 10:08 -15.14305 -164.45626 34941 ft 507 kts 62°
2026-05-05 10:08 -15.11183 -164.39129 34941 ft 507 kts 62°
2026-05-05 10:09 -15.08044 -164.32606 34939 ft 506 kts 61°
2026-05-05 10:09 -15.04915 -164.26121 34940 ft 506 kts 62°
2026-05-05 10:10 -15.01791 -164.19624 34936 ft 506 kts 62°
2026-05-05 10:10 -14.98656 -164.13101 34931 ft 507 kts 62°
2026-05-05 10:11 -14.95531 -164.06599 34926 ft 507 kts 62°
2026-05-05 10:11 -14.92409 -164.00104 34921 ft 507 kts 62°
2026-05-05 10:12 -14.89304 -163.93645 34917 ft 506 kts 62°
2026-05-05 10:12 -14.86164 -163.87147 34913 ft 506 kts 62°
2026-05-05 10:13 -14.83046 -163.80664 34913 ft 506 kts 62°
2026-05-05 10:13 -14.79926 -163.74173 34914 ft 506 kts 62°
2026-05-05 10:14 -14.76790 -163.67648 34914 ft 507 kts 62°
2026-05-05 10:14 -14.73670 -163.61158 34914 ft 506 kts 62°
2026-05-05 10:15 -14.70547 -163.54660 34914 ft 506 kts 62°
2026-05-05 10:15 -14.67428 -163.48171 34914 ft 506 kts 62°
2026-05-05 10:16 -14.64294 -163.41651 34914 ft 506 kts 62°
2026-05-05 10:16 -14.61179 -163.35168 34914 ft 506 kts 62°
2026-05-05 10:17 -14.58061 -163.28708 34913 ft 506 kts 62°
2026-05-05 10:17 -14.55148 -163.22650 34913 ft 506 kts 62°
2026-05-05 10:18 -14.52405 -163.16945 34916 ft 506 kts 62°
2026-05-05 10:18 -14.49539 -163.10981 34920 ft 505 kts 62°
2026-05-05 10:19 -14.46481 -163.04619 34921 ft 505 kts 62°
2026-05-05 10:19 -14.42961 -162.97294 34918 ft 505 kts 62°
2026-05-05 10:20 -14.39854 -162.90831 34914 ft 505 kts 62°
2026-05-05 10:20 -14.36740 -162.84353 34914 ft 505 kts 62°
2026-05-05 10:21 -14.33636 -162.77893 34912 ft 504 kts 62°
2026-05-05 10:21 -14.30529 -162.71431 34914 ft 504 kts 62°
2026-05-05 10:22 -14.27425 -162.64971 34913 ft 504 kts 62°
2026-05-05 10:22 -14.24324 -162.58520 34915 ft 504 kts 62°
2026-05-05 10:23 -14.21216 -162.52053 34912 ft 503 kts 62°
2026-05-05 10:23 -14.18122 -162.45615 34915 ft 503 kts 62°
2026-05-05 10:24 -14.15027 -162.39177 34914 ft 503 kts 62°
2026-05-05 10:24 -14.11919 -162.32715 34912 ft 503 kts 62°
2026-05-05 10:25 -14.08829 -162.26310 34913 ft 503 kts 62°
2026-05-05 10:25 -14.05743 -162.19892 34914 ft 503 kts 62°
2026-05-05 10:26 -14.02639 -162.13432 34912 ft 503 kts 62°
2026-05-05 10:26 -13.99549 -162.07003 34914 ft 503 kts 62°
2026-05-05 10:27 -13.96459 -162.00575 34913 ft 503 kts 62°
2026-05-05 10:27 -13.93367 -161.94141 34914 ft 503 kts 62°
2026-05-05 10:28 -13.90265 -161.87689 34914 ft 503 kts 62°
2026-05-05 10:28 -13.87168 -161.81273 34913 ft 503 kts 62°
2026-05-05 10:29 -13.84074 -161.74844 34914 ft 503 kts 62°
2026-05-05 10:29 -13.80979 -161.68408 34916 ft 502 kts 62°
2026-05-05 10:30 -13.77895 -161.61991 34913 ft 503 kts 62°
2026-05-05 10:30 -13.74807 -161.55566 34915 ft 503 kts 62°
2026-05-05 10:31 -13.71721 -161.49145 34914 ft 502 kts 62°
2026-05-05 10:31 -13.68626 -161.42707 34914 ft 502 kts 62°
2026-05-05 10:32 -13.65541 -161.36287 34914 ft 503 kts 62°
2026-05-05 10:32 -13.62454 -161.29886 34912 ft 502 kts 62°
2026-05-05 10:33 -13.59361 -161.23458 34913 ft 502 kts 62°
2026-05-05 10:33 -13.56275 -161.17038 34914 ft 503 kts 62°
2026-05-05 10:34 -13.53191 -161.10619 34913 ft 503 kts 62°
2026-05-05 10:34 -13.50101 -161.04193 34913 ft 503 kts 62°
2026-05-05 10:35 -13.47007 -160.97756 34920 ft 503 kts 62°
2026-05-05 10:35 -13.43918 -160.91329 34928 ft 503 kts 63°
2026-05-05 10:36 -13.40825 -160.84892 34934 ft 504 kts 63°
2026-05-05 10:36 -13.37725 -160.78443 34942 ft 504 kts 63°
2026-05-05 10:37 -13.34629 -160.72003 34941 ft 504 kts 63°
2026-05-05 10:37 -13.31535 -160.65564 34941 ft 504 kts 63°
2026-05-05 10:38 -13.28447 -160.59140 34940 ft 504 kts 63°
2026-05-05 10:38 -13.25347 -160.52690 34941 ft 504 kts 63°
2026-05-05 10:39 -13.22255 -160.46257 34941 ft 504 kts 63°
2026-05-05 10:39 -13.19163 -160.39825 34941 ft 504 kts 63°
2026-05-05 10:40 -13.16062 -160.33377 34939 ft 504 kts 62°
2026-05-05 10:40 -13.12967 -160.26961 34940 ft 503 kts 63°
2026-05-05 10:41 -13.09885 -160.20552 34941 ft 504 kts 63°
2026-05-05 10:41 -13.06798 -160.14129 34939 ft 504 kts 63°
2026-05-05 10:42 -13.02156 -160.04473 34941 ft 504 kts 63°
2026-05-05 10:43 -12.99215 -159.97991 34944 ft 504 kts 68°
2026-05-05 10:43 -12.96656 -159.91345 34940 ft 503 kts 67°
2026-05-05 10:44 -12.94009 -159.84708 34941 ft 503 kts 67°
2026-05-05 10:44 -12.91369 -159.78103 34940 ft 503 kts 67°
2026-05-05 10:45 -12.88719 -159.71498 34941 ft 503 kts 67°
2026-05-05 10:45 -12.86065 -159.64902 34941 ft 503 kts 67°
2026-05-05 10:46 -12.83422 -159.58297 34941 ft 503 kts 67°
2026-05-05 10:46 -12.80779 -159.51688 34941 ft 503 kts 67°
2026-05-05 10:47 -12.78134 -159.45076 34941 ft 503 kts 67°
2026-05-05 10:47 -12.75485 -159.38452 34941 ft 503 kts 67°
2026-05-05 10:48 -12.72842 -159.31850 34940 ft 502 kts 67°
2026-05-05 10:48 -12.70202 -159.25265 34940 ft 502 kts 67°
2026-05-05 10:49 -12.67556 -159.18651 34941 ft 501 kts 67°
2026-05-05 10:49 -12.64915 -159.12048 34940 ft 502 kts 67°
2026-05-05 10:50 -12.62281 -159.05463 34940 ft 502 kts 67°
2026-05-05 10:50 -12.59649 -158.98882 34940 ft 502 kts 67°
2026-05-05 10:51 -12.57005 -158.92269 34941 ft 502 kts 67°
2026-05-05 10:51 -12.54374 -158.85692 34940 ft 502 kts 67°
2026-05-05 10:52 -12.51743 -158.79111 34941 ft 500 kts 67°
2026-05-05 10:52 -12.49105 -158.72517 34941 ft 501 kts 67°
2026-05-05 10:53 -12.46477 -158.65943 34941 ft 500 kts 67°
2026-05-05 10:53 -12.43856 -158.59390 34940 ft 500 kts 67°
2026-05-05 10:54 -12.41228 -158.52820 34941 ft 500 kts 67°
2026-05-05 10:54 -12.38600 -158.46248 34940 ft 500 kts 67°
2026-05-05 10:55 -12.35980 -158.39698 34943 ft 499 kts 67°
2026-05-05 10:55 -12.33362 -158.33153 34939 ft 499 kts 67°
2026-05-05 10:56 -12.30725 -158.26583 34941 ft 499 kts 67°
2026-05-05 10:56 -12.28105 -158.20035 34941 ft 499 kts 67°
2026-05-05 10:57 -12.25493 -158.13502 34942 ft 498 kts 67°
2026-05-05 10:57 -12.22876 -158.06959 34951 ft 498 kts 67°
2026-05-05 10:58 -12.20254 -158.00403 34958 ft 498 kts 67°
2026-05-05 10:58 -12.17643 -157.93873 34965 ft 498 kts 67°
2026-05-05 10:59 -12.15028 -157.87334 34966 ft 498 kts 67°
2026-05-05 10:59 -12.12407 -157.80780 34962 ft 498 kts 67°
2026-05-05 11:00 -12.09795 -157.74249 34958 ft 498 kts 67°
2026-05-05 11:00 -12.07183 -157.67719 34953 ft 498 kts 67°
2026-05-05 11:01 -12.04567 -157.61178 34948 ft 498 kts 67°
2026-05-05 11:01 -12.01946 -157.54623 34946 ft 497 kts 67°
2026-05-05 11:02 -11.99336 -157.48097 34941 ft 498 kts 67°
2026-05-05 11:02 -11.96725 -157.41568 34940 ft 498 kts 68°
2026-05-05 11:03 -11.94107 -157.35020 34939 ft 497 kts 68°
2026-05-05 11:03 -11.91497 -157.28518 34941 ft 497 kts 67°
2026-05-05 11:04 -11.88892 -157.22023 34937 ft 496 kts 67°
2026-05-05 11:04 -11.86279 -157.15528 34947 ft 496 kts 68°
2026-05-05 11:05 -11.83671 -157.09010 34953 ft 496 kts 68°
2026-05-05 11:05 -11.81072 -157.02513 34959 ft 495 kts 68°
2026-05-05 11:06 -11.78476 -156.96024 34967 ft 495 kts 68°
2026-05-05 11:06 -11.75868 -156.89502 34968 ft 495 kts 68°
2026-05-05 11:07 -11.73278 -156.83025 34967 ft 495 kts 68°
2026-05-05 11:07 -11.70687 -156.76547 34968 ft 495 kts 68°
2026-05-05 11:08 -11.68100 -156.70078 34967 ft 495 kts 68°
2026-05-05 11:08 -11.65500 -156.63577 34969 ft 494 kts 68°
2026-05-05 11:09 -11.62913 -156.57107 34967 ft 494 kts 68°
2026-05-05 11:09 -11.60328 -156.50644 34968 ft 494 kts 68°
2026-05-05 11:10 -11.57733 -156.44157 34968 ft 494 kts 68°
2026-05-05 11:10 -11.55152 -156.37702 34967 ft 494 kts 68°
2026-05-05 11:11 -11.52564 -156.31241 34967 ft 494 kts 68°
2026-05-05 11:11 -11.49982 -156.24797 34964 ft 493 kts 68°
2026-05-05 11:12 -11.47393 -156.18326 34962 ft 493 kts 68°
2026-05-05 11:12 -11.44808 -156.11863 34962 ft 493 kts 68°
2026-05-05 11:13 -11.42227 -156.05409 34963 ft 493 kts 68°
2026-05-05 11:13 -11.39637 -155.98932 34968 ft 493 kts 68°
2026-05-05 11:14 -11.37061 -155.92493 34967 ft 492 kts 68°
2026-05-05 11:14 -11.34485 -155.86051 34967 ft 493 kts 68°
2026-05-05 11:15 -11.31909 -155.79608 34968 ft 492 kts 68°
2026-05-05 11:15 -11.29330 -155.73160 34967 ft 492 kts 68°
2026-05-05 11:16 -11.26758 -155.66730 34968 ft 492 kts 68°
2026-05-05 11:16 -11.24187 -155.60299 34967 ft 492 kts 68°
2026-05-05 11:17 -11.21605 -155.53844 34968 ft 492 kts 68°
2026-05-05 11:17 -11.19036 -155.47421 34968 ft 491 kts 68°
2026-05-05 11:18 -11.16470 -155.41003 34967 ft 491 kts 68°
2026-05-05 11:18 -11.13904 -155.34589 34968 ft 491 kts 68°
2026-05-05 11:19 -11.11323 -155.28155 34967 ft 491 kts 68°
2026-05-05 11:19 -11.08756 -155.21742 34967 ft 491 kts 68°
2026-05-05 11:20 -11.06187 -155.15319 34967 ft 491 kts 68°
2026-05-05 11:20 -11.03612 -155.08878 34968 ft 491 kts 68°
2026-05-05 11:21 -11.01044 -155.02458 34968 ft 491 kts 68°
2026-05-05 11:21 -10.98483 -154.96055 34967 ft 490 kts 68°
2026-05-05 11:22 -10.95923 -154.89653 34968 ft 490 kts 68°
2026-05-05 11:22 -10.93354 -154.83230 34967 ft 490 kts 68°
2026-05-05 11:23 -10.90793 -154.76825 34967 ft 490 kts 68°
2026-05-05 11:23 -10.88226 -154.70437 34967 ft 490 kts 68°
2026-05-05 11:24 -10.85654 -154.64026 34968 ft 489 kts 68°
2026-05-05 11:24 -10.83098 -154.57640 34967 ft 489 kts 68°
2026-05-05 11:25 -10.80543 -154.51252 34968 ft 489 kts 68°
2026-05-05 11:25 -10.77992 -154.44874 34967 ft 489 kts 68°
2026-05-05 11:26 -10.75431 -154.38470 34968 ft 488 kts 68°
2026-05-05 11:26 -10.72883 -154.32105 34967 ft 488 kts 68°
2026-05-05 11:27 -10.70326 -154.25724 34967 ft 488 kts 68°
2026-05-05 11:27 -10.67771 -154.19337 34968 ft 488 kts 68°
2026-05-05 11:28 -10.65224 -154.12970 34967 ft 488 kts 68°
2026-05-05 11:28 -10.62680 -154.06608 34965 ft 487 kts 68°
2026-05-05 11:29 -10.60139 -154.00255 34969 ft 487 kts 68°
2026-05-05 11:29 -10.57585 -153.93871 34967 ft 487 kts 68°
2026-05-05 11:30 -10.55042 -153.87511 34968 ft 487 kts 68°
2026-05-05 11:30 -10.52496 -153.81145 34967 ft 487 kts 68°
2026-05-05 11:31 -10.49942 -153.74758 34967 ft 487 kts 68°
2026-05-05 11:31 -10.47400 -153.68401 34968 ft 487 kts 68°
2026-05-05 11:32 -10.44858 -153.62047 34967 ft 488 kts 68°
2026-05-05 11:32 -10.42315 -153.55687 34967 ft 488 kts 68°
2026-05-05 11:33 -10.39760 -153.49299 34967 ft 487 kts 68°
2026-05-05 11:33 -10.37219 -153.42944 34967 ft 488 kts 68°
2026-05-05 11:34 -10.34673 -153.36579 34968 ft 488 kts 68°
2026-05-05 11:34 -10.32124 -153.30221 34967 ft 488 kts 68°
2026-05-05 11:35 -10.29580 -153.23867 34967 ft 488 kts 68°
2026-05-05 11:35 -10.27039 -153.17514 34967 ft 489 kts 68°
2026-05-05 11:36 -10.24490 -153.11143 34967 ft 489 kts 68°
2026-05-05 11:36 -10.21933 -153.04746 34965 ft 489 kts 69°
2026-05-05 11:37 -10.19384 -152.98373 34960 ft 489 kts 69°
2026-05-05 11:37 -10.16834 -152.91997 34955 ft 489 kts 69°
2026-05-05 11:38 -10.14271 -152.85589 34952 ft 490 kts 69°
2026-05-05 11:38 -10.11720 -152.79210 34947 ft 490 kts 69°
2026-05-05 11:39 -10.09168 -152.72828 34943 ft 490 kts 69°
2026-05-05 11:39 -10.06616 -152.66446 34941 ft 490 kts 69°
2026-05-05 11:40 -10.04051 -152.60033 34941 ft 490 kts 69°
2026-05-05 11:40 -10.01496 -152.53644 34940 ft 490 kts 69°
2026-05-05 11:41 -9.98936 -152.47243 34941 ft 490 kts 69°
2026-05-05 11:41 -9.96373 -152.40835 34941 ft 491 kts 69°
2026-05-05 11:42 -9.93815 -152.34439 34941 ft 491 kts 69°
2026-05-05 11:42 -9.91255 -152.28058 34941 ft 491 kts 69°
2026-05-05 11:43 -9.88693 -152.21674 34940 ft 491 kts 69°
2026-05-05 11:43 -9.86122 -152.15269 34940 ft 491 kts 69°
2026-05-05 11:44 -9.83564 -152.08878 34948 ft 491 kts 69°
2026-05-05 11:44 -9.81008 -152.02487 34955 ft 491 kts 69°
2026-05-05 11:45 -9.78442 -151.96074 34963 ft 491 kts 69°
2026-05-05 11:45 -9.75882 -151.89672 34967 ft 491 kts 69°
2026-05-05 11:46 -9.73327 -151.83284 34967 ft 491 kts 69°
2026-05-05 11:46 -9.70771 -151.76893 34967 ft 491 kts 70°
2026-05-05 11:47 -9.68209 -151.70487 34967 ft 491 kts 70°
2026-05-05 11:47 -9.65654 -151.64098 34967 ft 491 kts 70°
2026-05-05 11:48 -9.61820 -151.54512 34966 ft 491 kts 70°
2026-05-05 11:48 -9.59258 -151.48104 34968 ft 491 kts 70°
2026-05-05 11:49 -9.56701 -151.41711 34967 ft 491 kts 70°
2026-05-05 11:49 -9.54149 -151.35328 34967 ft 491 kts 70°
2026-05-05 11:50 -9.51583 -151.28930 34967 ft 491 kts 70°
2026-05-05 11:50 -9.49033 -151.22559 34968 ft 491 kts 70°
2026-05-05 11:51 -9.46480 -151.16175 34967 ft 491 kts 70°
2026-05-05 11:51 -9.43922 -151.09781 34968 ft 491 kts 70°
2026-05-05 11:52 -9.41357 -151.03367 34968 ft 491 kts 70°
2026-05-05 11:52 -9.38805 -150.96984 34967 ft 491 kts 70°
2026-05-05 11:53 -9.36254 -150.90608 34968 ft 491 kts 70°
2026-05-05 11:53 -9.33692 -150.84200 34967 ft 491 kts 70°
2026-05-05 11:54 -9.31138 -150.77815 34968 ft 491 kts 70°
2026-05-05 11:54 -9.28586 -150.71433 34968 ft 491 kts 70°
2026-05-05 11:55 -9.26034 -150.65053 34967 ft 491 kts 70°
2026-05-05 11:55 -9.23474 -150.58651 34968 ft 491 kts 70°
2026-05-05 11:56 -9.20924 -150.52276 34967 ft 491 kts 70°
2026-05-05 11:56 -9.18371 -150.45892 34968 ft 491 kts 70°
2026-05-05 11:57 -9.15810 -150.39489 34968 ft 491 kts 70°
2026-05-05 11:57 -9.13258 -150.33111 34968 ft 491 kts 70°
2026-05-05 11:58 -9.10699 -150.26729 34966 ft 491 kts 70°
2026-05-05 11:58 -9.08147 -150.20352 34962 ft 491 kts 70°
2026-05-05 11:59 -9.05584 -150.13944 34962 ft 491 kts 70°
2026-05-05 11:59 -9.03031 -150.07563 34963 ft 491 kts 70°
2026-05-05 12:00 -9.00475 -150.01179 34967 ft 491 kts 69°
2026-05-05 12:00 -8.97535 -149.94934 34967 ft 493 kts 65°
2026-05-05 12:01 -8.94470 -149.88763 34969 ft 493 kts 65°
2026-05-05 12:01 -8.91389 -149.82596 34968 ft 493 kts 65°
2026-05-05 12:02 -8.88288 -149.76414 34966 ft 493 kts 65°
2026-05-05 12:02 -8.85193 -149.70249 34967 ft 493 kts 65°
2026-05-05 12:03 -8.82111 -149.64088 34967 ft 494 kts 65°
2026-05-05 12:03 -8.79023 -149.57914 34967 ft 494 kts 65°
2026-05-05 12:04 -8.75927 -149.51721 34967 ft 494 kts 65°
2026-05-05 12:04 -8.72838 -149.45543 34967 ft 493 kts 65°
2026-05-05 12:05 -8.69757 -149.39378 34967 ft 493 kts 65°
2026-05-05 12:05 -8.66668 -149.33203 34968 ft 494 kts 65°
2026-05-05 12:06 -8.63576 -149.27019 34967 ft 494 kts 65°
2026-05-05 12:06 -8.60491 -149.20849 34967 ft 494 kts 65°
2026-05-05 12:07 -8.57405 -149.14676 34967 ft 494 kts 65°
2026-05-05 12:07 -8.54301 -149.08468 34967 ft 494 kts 65°
2026-05-05 12:08 -8.51216 -149.02295 34969 ft 494 kts 65°
2026-05-05 12:08 -8.48129 -148.96123 34976 ft 494 kts 65°
2026-05-05 12:09 -8.45038 -148.89940 34977 ft 494 kts 65°
2026-05-05 12:09 -8.41941 -148.83747 34981 ft 494 kts 65°
2026-05-05 12:10 -8.38854 -148.77572 34979 ft 494 kts 65°
2026-05-05 12:10 -8.35764 -148.71390 34975 ft 495 kts 65°
2026-05-05 12:11 -8.32661 -148.65185 34969 ft 495 kts 65°
2026-05-05 12:11 -8.29569 -148.58999 34968 ft 495 kts 65°
2026-05-05 12:12 -8.26478 -148.52815 34967 ft 495 kts 65°
2026-05-05 12:12 -8.23381 -148.46621 34968 ft 496 kts 65°
2026-05-05 12:13 -8.20275 -148.40409 34968 ft 496 kts 65°
2026-05-05 12:13 -8.17177 -148.34214 34968 ft 496 kts 65°
2026-05-05 12:14 -8.14082 -148.28028 34968 ft 496 kts 65°
2026-05-05 12:14 -8.10972 -148.21809 34968 ft 496 kts 65°
2026-05-05 12:15 -8.07873 -148.15610 34968 ft 496 kts 65°
2026-05-05 12:15 -8.04774 -148.09411 34968 ft 496 kts 65°
2026-05-05 12:16 -8.01680 -148.03222 34968 ft 496 kts 65°
2026-05-05 12:16 -7.98564 -147.96992 34968 ft 496 kts 65°
2026-05-05 12:17 -7.95466 -147.90793 34968 ft 496 kts 65°
2026-05-05 12:17 -7.92365 -147.84591 34968 ft 496 kts 65°
2026-05-05 12:18 -7.89258 -147.78378 34967 ft 496 kts 65°
2026-05-05 12:18 -7.86146 -147.72195 34967 ft 496 kts 65°
2026-05-05 12:19 -7.83051 -147.66009 34967 ft 496 kts 65°
2026-05-05 12:19 -7.79954 -147.59816 34967 ft 496 kts 65°
2026-05-05 12:20 -7.76851 -147.53608 34967 ft 496 kts 65°
2026-05-05 12:20 -7.73755 -147.47418 34967 ft 496 kts 65°
2026-05-05 12:21 -7.70659 -147.41226 34967 ft 496 kts 65°
2026-05-05 12:21 -7.67552 -147.35010 34967 ft 496 kts 65°
2026-05-05 12:22 -7.64462 -147.28832 34967 ft 496 kts 65°
2026-05-05 12:22 -7.61375 -147.22656 34967 ft 495 kts 65°
2026-05-05 12:23 -7.58285 -147.16476 34968 ft 495 kts 65°
2026-05-05 12:23 -7.55189 -147.10285 34968 ft 495 kts 65°
2026-05-05 12:24 -7.52100 -147.04106 34967 ft 495 kts 65°
2026-05-05 12:24 -7.49017 -146.97939 34968 ft 494 kts 65°
2026-05-05 12:25 -7.45927 -146.91759 34968 ft 494 kts 64°
2026-05-05 12:25 -7.42858 -146.85621 34966 ft 493 kts 64°
2026-05-05 12:26 -7.39784 -146.79471 34968 ft 493 kts 64°
2026-05-05 12:26 -7.36710 -146.73324 34968 ft 493 kts 65°
2026-05-05 12:27 -7.33625 -146.67154 34967 ft 493 kts 65°
2026-05-05 12:27 -7.30550 -146.61002 34968 ft 493 kts 65°
2026-05-05 12:28 -7.27473 -146.54847 34968 ft 493 kts 64°
2026-05-05 12:28 -7.24391 -146.48683 34967 ft 494 kts 64°
2026-05-05 12:29 -7.21311 -146.42522 34968 ft 494 kts 64°
2026-05-05 12:29 -7.18235 -146.36370 34968 ft 494 kts 64°
2026-05-05 12:30 -7.15160 -146.30223 34967 ft 494 kts 64°
2026-05-05 12:30 -7.12065 -146.24032 34968 ft 495 kts 64°
2026-05-05 12:31 -7.08982 -146.17865 34968 ft 495 kts 64°
2026-05-05 12:31 -7.05904 -146.11710 34968 ft 495 kts 64°
2026-05-05 12:32 -7.02809 -146.05519 34968 ft 495 kts 64°
2026-05-05 12:32 -6.99719 -145.99339 34968 ft 496 kts 64°
2026-05-05 12:33 -6.96633 -145.93165 34967 ft 496 kts 64°
2026-05-05 12:33 -6.93545 -145.86989 35241 ft 493 kts 64°
2026-05-05 12:34 -6.92004 -145.83908 35622 ft 490 kts 64°
2026-05-05 12:34 -6.90482 -145.80862 35997 ft 487 kts 64°
2026-05-05 12:34 -6.88967 -145.77839 36368 ft 484 kts 63°
2026-05-05 12:34 -6.87458 -145.74846 36732 ft 481 kts 63°
2026-05-05 12:35 -6.85959 -145.71858 36999 ft 480 kts 63°
2026-05-05 12:35 -6.84454 -145.68850 36951 ft 486 kts 63°
2026-05-05 12:35 -6.81392 -145.62728 36978 ft 495 kts 63°
2026-05-05 12:36 -6.78279 -145.56500 36966 ft 505 kts 63°
2026-05-05 12:36 -6.75107 -145.50156 37059 ft 510 kts 63°
2026-05-05 12:37 -6.73516 -145.46997 37446 ft 506 kts 63°
2026-05-05 12:37 -6.71924 -145.43867 37721 ft 505 kts 63°
2026-05-05 12:37 -6.70308 -145.40719 37989 ft 503 kts 62°
2026-05-05 12:37 -6.68700 -145.37608 38250 ft 501 kts 62°
2026-05-05 12:38 -6.67097 -145.34520 38508 ft 499 kts 62°
2026-05-05 12:38 -6.65501 -145.31454 38759 ft 496 kts 62°
2026-05-05 12:38 -6.63912 -145.28405 39001 ft 494 kts 62°
2026-05-05 12:38 -6.62332 -145.25369 39235 ft 491 kts 62°
2026-05-05 12:39 -6.59150 -145.19240 39300 ft 496 kts 62°
2026-05-05 12:39 -6.55999 -145.13162 39458 ft 498 kts 62°
2026-05-05 12:40 -6.52819 -145.07020 39628 ft 499 kts 62°
2026-05-05 12:40 -6.49624 -145.00840 39791 ft 501 kts 62°
2026-05-05 12:41 -6.46410 -144.94613 39969 ft 502 kts 62°
2026-05-05 12:41 -6.43206 -144.88397 40100 ft 504 kts 62°
2026-05-05 12:42 -6.39999 -144.82166 40232 ft 506 kts 62°
2026-05-05 12:42 -6.36772 -144.75888 40381 ft 506 kts 62°
2026-05-05 12:43 -6.33564 -144.69637 40501 ft 508 kts 62°
2026-05-05 12:43 -6.30340 -144.63346 40614 ft 509 kts 62°
2026-05-05 12:44 -6.27126 -144.57069 40753 ft 509 kts 62°
2026-05-05 12:44 -6.23891 -144.50741 40842 ft 511 kts 62°
2026-05-05 12:45 -6.20665 -144.44422 40935 ft 512 kts 62°
2026-05-05 12:45 -6.17437 -144.38093 41019 ft 513 kts 62°
2026-05-05 12:46 -6.14241 -144.31802 41116 ft 510 kts 62°
2026-05-05 12:46 -6.12687 -144.28615 40949 ft 514 kts 63°
2026-05-05 12:46 -6.11166 -144.25397 40882 ft 512 kts 64°
2026-05-05 12:47 -6.09678 -144.22179 40673 ft 511 kts 64°
2026-05-05 12:47 -6.08208 -144.18960 40493 ft 510 kts 65°
2026-05-05 12:47 -6.06761 -144.15751 40204 ft 507 kts 65°
2026-05-05 12:47 -6.05335 -144.12550 39404 ft 505 kts 65°
2026-05-05 12:48 -6.03931 -144.09333 38913 ft 506 kts 68°
2026-05-05 12:48 -6.02717 -144.06033 38491 ft 509 kts 68°
2026-05-05 12:48 -6.01335 -144.02790 38295 ft 507 kts 64°
2026-05-05 12:48 -5.99801 -143.99628 38098 ft 505 kts 63°
2026-05-05 12:49 -5.98265 -143.96504 37950 ft 499 kts 63°
2026-05-05 12:49 -5.96979 -143.93910 37974 ft 496 kts 63°
2026-05-05 12:49 -5.93716 -143.87372 37965 ft 498 kts 62°
2026-05-05 12:50 -5.90626 -143.81187 37967 ft 497 kts 62°
2026-05-05 12:50 -5.87550 -143.75060 37952 ft 497 kts 62°
2026-05-05 12:51 -5.84469 -143.68911 37935 ft 497 kts 62°
2026-05-05 12:51 -5.81381 -143.62736 37943 ft 497 kts 62°
2026-05-05 12:52 -5.78294 -143.56562 37940 ft 497 kts 62°
2026-05-05 12:52 -5.75204 -143.50381 37941 ft 497 kts 62°
2026-05-05 12:53 -5.72101 -143.44174 37941 ft 497 kts 62°
2026-05-05 12:53 -5.69013 -143.37998 37941 ft 496 kts 62°
2026-05-05 12:54 -5.64407 -143.28785 37940 ft 496 kts 62°
2026-05-05 12:55 -5.61333 -143.22636 37940 ft 496 kts 62°
2026-05-05 12:55 -5.58281 -143.16533 37940 ft 496 kts 62°
2026-05-05 12:56 -5.55193 -143.10355 37940 ft 496 kts 62°
2026-05-05 12:56 -5.52115 -143.04197 37941 ft 495 kts 62°
2026-05-05 12:57 -5.49019 -142.98007 37946 ft 495 kts 62°
2026-05-05 12:57 -5.45958 -142.91885 37954 ft 495 kts 62°
2026-05-05 12:58 -5.42879 -142.85726 37960 ft 495 kts 62°
2026-05-05 12:58 -5.39792 -142.79550 37961 ft 495 kts 62°
2026-05-05 12:59 -5.36715 -142.73397 37956 ft 495 kts 62°
2026-05-05 12:59 -5.33641 -142.67247 37951 ft 494 kts 62°
2026-05-05 13:00 -5.29017 -142.58000 37943 ft 494 kts 62°
2026-05-05 13:01 -5.22873 -142.45713 37941 ft 494 kts 62°
2026-05-05 13:01 -5.19797 -142.39559 37941 ft 494 kts 62°
2026-05-05 13:02 -5.16715 -142.33394 37940 ft 494 kts 62°
2026-05-05 13:02 -5.13673 -142.27311 37940 ft 494 kts 62°
2026-05-05 13:03 -5.10607 -142.21178 37942 ft 494 kts 62°
2026-05-05 13:03 -5.07535 -142.15034 37939 ft 495 kts 62°
2026-05-05 13:04 -5.04463 -142.08889 37940 ft 495 kts 62°
2026-05-05 13:04 -5.01383 -142.02728 37945 ft 495 kts 62°
2026-05-05 13:05 -4.98311 -141.96584 37951 ft 494 kts 62°
2026-05-05 13:05 -4.95232 -141.90425 37959 ft 494 kts 62°
2026-05-05 13:06 -4.92164 -141.84288 37960 ft 494 kts 62°
2026-05-05 13:06 -4.89100 -141.78164 37956 ft 494 kts 62°
2026-05-05 13:07 -4.86017 -141.72029 37951 ft 494 kts 62°
2026-05-05 13:07 -4.82959 -141.65916 37946 ft 494 kts 62°
2026-05-05 13:08 -4.79900 -141.59798 37941 ft 494 kts 62°
2026-05-05 13:08 -4.76832 -141.53661 37941 ft 494 kts 62°
2026-05-05 13:09 -4.73754 -141.47506 37941 ft 494 kts 62°
2026-05-05 13:09 -4.70687 -141.41373 37942 ft 494 kts 62°
2026-05-05 13:10 -4.67619 -141.35235 37941 ft 494 kts 62°
2026-05-05 13:10 -4.64549 -141.29092 37939 ft 494 kts 62°
2026-05-05 13:11 -4.61489 -141.22971 37941 ft 494 kts 62°
2026-05-05 13:11 -4.58436 -141.16864 37940 ft 494 kts 62°
2026-05-05 13:12 -4.55368 -141.10728 37941 ft 494 kts 61°
2026-05-05 13:12 -4.52290 -141.04572 37949 ft 494 kts 61°
2026-05-05 13:13 -4.49225 -140.98441 37956 ft 494 kts 61°
2026-05-05 13:13 -4.46157 -140.92305 37962 ft 494 kts 61°
2026-05-05 13:14 -4.43077 -140.86145 37967 ft 494 kts 61°
2026-05-05 13:14 -4.40009 -140.80010 37666 ft 493 kts 61°
2026-05-05 13:15 -4.38485 -140.76960 37416 ft 489 kts 61°
2026-05-05 13:15 -4.36969 -140.73928 37168 ft 486 kts 61°
2026-05-05 13:15 -4.35471 -140.70931 36951 ft 483 kts 61°
2026-05-05 13:15 -4.33976 -140.67941 36987 ft 477 kts 61°
2026-05-05 13:16 -4.30999 -140.61988 36964 ft 483 kts 61°
2026-05-05 13:16 -4.27998 -140.55988 36969 ft 483 kts 61°
2026-05-05 13:17 -4.25003 -140.49994 36968 ft 482 kts 61°
2026-05-05 13:17 -4.21995 -140.43979 36967 ft 483 kts 61°
2026-05-05 13:18 -4.18999 -140.37988 36967 ft 482 kts 61°
2026-05-05 13:18 -4.16007 -140.32002 36966 ft 483 kts 60°
2026-05-05 13:19 -4.13017 -140.26020 36968 ft 482 kts 60°
2026-05-05 13:19 -4.10018 -140.20021 36966 ft 482 kts 60°
2026-05-05 13:20 -4.07052 -140.14094 36967 ft 482 kts 60°
2026-05-05 13:20 -4.04065 -140.08118 36967 ft 482 kts 60°
2026-05-05 13:21 -4.01055 -140.02102 36970 ft 485 kts 60°
2026-05-05 13:21 -3.98036 -139.96018 36967 ft 493 kts 61°
2026-05-05 13:22 -3.94973 -139.89876 36968 ft 495 kts 60°
2026-05-05 13:22 -3.91903 -139.83734 36966 ft 495 kts 60°
2026-05-05 13:23 -3.88824 -139.77583 36968 ft 494 kts 60°
2026-05-05 13:23 -3.85749 -139.71469 36968 ft 493 kts 60°
2026-05-05 13:24 -3.82686 -139.65349 36968 ft 493 kts 60°
2026-05-05 13:24 -3.79616 -139.59210 36968 ft 493 kts 60°
2026-05-05 13:25 -3.76555 -139.53088 36968 ft 493 kts 60°
2026-05-05 13:25 -3.73499 -139.46974 36969 ft 493 kts 60°
2026-05-05 13:26 -3.70437 -139.40852 36968 ft 493 kts 60°
2026-05-05 13:26 -3.67368 -139.34712 36968 ft 493 kts 60°
2026-05-05 13:27 -3.64320 -139.28604 36967 ft 492 kts 60°
2026-05-05 13:27 -3.61267 -139.22496 36968 ft 493 kts 60°
2026-05-05 13:28 -3.58204 -139.16371 36966 ft 493 kts 60°
2026-05-05 13:28 -3.55151 -139.10263 36967 ft 493 kts 60°
2026-05-05 13:29 -3.52092 -139.04145 36968 ft 492 kts 60°
2026-05-05 13:29 -3.49038 -138.98036 36967 ft 493 kts 60°
2026-05-05 13:30 -3.45974 -138.91908 36967 ft 493 kts 60°
2026-05-05 13:30 -3.42916 -138.85793 36968 ft 493 kts 60°
2026-05-05 13:31 -3.39867 -138.79696 36968 ft 493 kts 60°
2026-05-05 13:31 -3.36798 -138.73555 36968 ft 493 kts 60°
2026-05-05 13:32 -3.33743 -138.67447 36968 ft 493 kts 60°
2026-05-05 13:32 -3.30688 -138.61335 36969 ft 492 kts 60°
2026-05-05 13:33 -3.27632 -138.55224 36967 ft 492 kts 60°
2026-05-05 13:33 -3.24574 -138.49109 36968 ft 492 kts 60°
2026-05-05 13:34 -3.21520 -138.42999 36968 ft 492 kts 60°
2026-05-05 13:34 -3.18465 -138.36890 36968 ft 493 kts 60°
2026-05-05 13:35 -3.15402 -138.30758 36967 ft 493 kts 60°
2026-05-05 13:35 -3.12349 -138.24647 36967 ft 493 kts 60°
2026-05-05 13:36 -3.09297 -138.18543 36968 ft 492 kts 60°
2026-05-05 13:36 -3.06239 -138.12425 36966 ft 492 kts 60°
2026-05-05 13:37 -3.03178 -138.06302 36967 ft 492 kts 60°
2026-05-05 13:37 -3.00121 -138.00190 36967 ft 492 kts 60°
2026-05-05 13:38 -2.97073 -137.94092 36969 ft 491 kts 60°
2026-05-05 13:38 -2.94019 -137.87984 36966 ft 491 kts 60°
2026-05-05 13:39 -2.90973 -137.81895 36967 ft 491 kts 60°
2026-05-05 13:39 -2.87911 -137.75797 36967 ft 491 kts 60°
2026-05-05 13:40 -2.84862 -137.69717 36968 ft 491 kts 60°
2026-05-05 13:40 -2.81809 -137.63615 36969 ft 491 kts 60°
2026-05-05 13:41 -2.78765 -137.57526 36968 ft 491 kts 60°
2026-05-05 13:41 -2.75721 -137.51438 36970 ft 491 kts 60°
2026-05-05 13:42 -2.72669 -137.45335 36967 ft 491 kts 60°
2026-05-05 13:42 -2.69626 -137.39250 36970 ft 491 kts 60°
2026-05-05 13:43 -2.66584 -137.33164 36966 ft 491 kts 60°
2026-05-05 13:43 -2.63548 -137.27078 36968 ft 491 kts 60°
2026-05-05 13:44 -2.60498 -137.20976 36968 ft 490 kts 60°
2026-05-05 13:44 -2.57461 -137.14900 36968 ft 490 kts 60°
2026-05-05 13:45 -2.54429 -137.08837 36967 ft 490 kts 60°
2026-05-05 13:45 -2.51384 -137.02749 36968 ft 490 kts 60°
2026-05-05 13:46 -2.48346 -136.96671 36967 ft 490 kts 60°
2026-05-05 13:46 -2.45310 -136.90599 36967 ft 489 kts 60°
2026-05-05 13:47 -2.42279 -136.84537 36968 ft 489 kts 60°
2026-05-05 13:47 -2.39239 -136.78456 36967 ft 489 kts 60°
2026-05-05 13:48 -2.36211 -136.72402 36969 ft 489 kts 60°
2026-05-05 13:48 -2.33178 -136.66337 36967 ft 489 kts 60°
2026-05-05 13:49 -2.30141 -136.60261 36967 ft 488 kts 60°
2026-05-05 13:49 -2.27117 -136.54214 36968 ft 488 kts 60°
2026-05-05 13:50 -2.24089 -136.48159 36967 ft 488 kts 60°
2026-05-05 13:50 -2.21068 -136.42116 36967 ft 488 kts 60°
2026-05-05 13:51 -2.18040 -136.36060 36968 ft 488 kts 60°
2026-05-05 13:51 -2.15020 -136.30011 36968 ft 488 kts 60°
2026-05-05 13:52 -2.12000 -136.23966 36966 ft 488 kts 60°
2026-05-05 13:52 -2.08969 -136.17903 36967 ft 488 kts 60°
2026-05-05 13:53 -2.05952 -136.11867 36967 ft 487 kts 60°
2026-05-05 13:53 -2.02933 -136.05831 36966 ft 487 kts 60°
2026-05-05 13:54 -1.99913 -135.99791 36967 ft 487 kts 60°
2026-05-05 13:54 -1.96884 -135.93732 36967 ft 487 kts 60°
2026-05-05 13:55 -1.93866 -135.87696 36967 ft 487 kts 60°
2026-05-05 13:55 -1.90849 -135.81661 36968 ft 487 kts 60°
2026-05-05 13:56 -1.87809 -135.75609 36967 ft 487 kts 60°
2026-05-05 13:56 -1.84786 -135.69577 36968 ft 487 kts 60°
2026-05-05 13:57 -1.81771 -135.63551 36968 ft 487 kts 60°
2026-05-05 13:57 -1.78755 -135.57520 36968 ft 487 kts 60°
2026-05-05 13:58 -1.75728 -135.51466 36969 ft 486 kts 60°
2026-05-05 13:58 -1.72717 -135.45445 36968 ft 486 kts 60°
2026-05-05 13:59 -1.68256 -135.36524 36969 ft 486 kts 60°
2026-05-05 14:00 -1.64165 -135.28329 36968 ft 485 kts 60°
2026-05-05 14:00 -1.60854 -135.21703 36968 ft 485 kts 60°
2026-05-05 14:01 -1.57854 -135.15701 36967 ft 485 kts 60°
2026-05-05 14:01 -1.54849 -135.09691 36968 ft 484 kts 60°
2026-05-05 14:02 -1.51857 -135.03707 36967 ft 485 kts 60°
2026-05-05 14:02 -1.49216 -134.98427 36968 ft 484 kts 60°
2026-05-05 14:03 -1.45974 -134.91943 36967 ft 484 kts 60°
2026-05-05 14:03 -1.43039 -134.86073 36966 ft 483 kts 60°
2026-05-05 14:04 -1.40085 -134.80164 36968 ft 483 kts 60°
2026-05-05 14:04 -1.37149 -134.74292 36967 ft 483 kts 60°
2026-05-05 14:05 -1.34178 -134.68350 36968 ft 483 kts 60°
2026-05-05 14:05 -1.31277 -134.62550 36996 ft 483 kts 60°
2026-05-05 14:06 -1.28286 -134.56566 36992 ft 483 kts 60°
2026-05-05 14:06 -1.25338 -134.50670 36996 ft 483 kts 60°
2026-05-05 14:07 -1.22378 -134.44750 36993 ft 483 kts 60°
2026-05-05 14:07 -1.19422 -134.38837 36996 ft 482 kts 60°
2026-05-05 14:08 -1.16467 -134.32925 36992 ft 482 kts 60°
2026-05-05 14:08 -1.13509 -134.26995 36995 ft 482 kts 60°
2026-05-05 14:09 -1.10544 -134.21063 36992 ft 482 kts 60°
2026-05-05 14:09 -1.07575 -134.15125 36994 ft 482 kts 60°
2026-05-05 14:10 -1.04601 -134.09176 36993 ft 481 kts 60°
2026-05-05 14:10 -1.01626 -134.03227 36994 ft 481 kts 60°
2026-05-05 14:11 -0.98655 -133.97286 36993 ft 480 kts 60°
2026-05-05 14:11 -0.95694 -133.91362 36994 ft 479 kts 60°
2026-05-05 14:12 -0.92732 -133.85438 36995 ft 480 kts 60°
2026-05-05 14:12 -0.89773 -133.79522 36993 ft 480 kts 60°
2026-05-05 14:13 -0.86806 -133.73622 36996 ft 480 kts 60°
2026-05-05 14:13 -0.83858 -133.67733 36995 ft 480 kts 60°
2026-05-05 14:14 -0.80902 -133.61822 36995 ft 480 kts 60°
2026-05-05 14:14 -0.77941 -133.55900 36994 ft 479 kts 60°
2026-05-05 14:15 -0.75011 -133.50039 36996 ft 479 kts 60°
2026-05-05 14:15 -0.72092 -133.44203 36994 ft 479 kts 60°
2026-05-05 14:16 -0.69170 -133.38361 36996 ft 479 kts 60°
2026-05-05 14:16 -0.66241 -133.32495 36994 ft 479 kts 60°
2026-05-05 14:17 -0.63334 -133.26669 36995 ft 479 kts 60°
2026-05-05 14:17 -0.60376 -133.20750 36994 ft 479 kts 60°
2026-05-05 14:18 -0.57439 -133.14876 36995 ft 478 kts 60°
2026-05-05 14:18 -0.54490 -133.08977 36993 ft 478 kts 60°
2026-05-05 14:19 -0.51544 -133.03086 36995 ft 478 kts 60°
2026-05-05 14:19 -0.48603 -132.97206 36994 ft 478 kts 60°
2026-05-05 14:20 -0.45664 -132.91328 36994 ft 478 kts 60°
2026-05-05 14:20 -0.42701 -132.85402 36994 ft 478 kts 60°
2026-05-05 14:21 -0.39758 -132.79515 36995 ft 477 kts 60°
2026-05-05 14:21 -0.36826 -132.73652 36994 ft 477 kts 60°
2026-05-05 14:22 -0.33888 -132.67776 36994 ft 477 kts 60°
2026-05-05 14:22 -0.30940 -132.61880 36995 ft 476 kts 60°
2026-05-05 14:23 -0.28000 -132.55999 36994 ft 476 kts 60°
2026-05-05 14:23 -0.25071 -132.50141 36995 ft 476 kts 60°
2026-05-05 14:24 -0.22122 -132.44243 36994 ft 476 kts 60°
2026-05-05 14:24 -0.19184 -132.38370 36995 ft 476 kts 60°
2026-05-05 14:25 -0.16261 -132.32518 36994 ft 475 kts 60°
2026-05-05 14:25 -0.13341 -132.26664 36994 ft 475 kts 60°
2026-05-05 14:26 -0.10405 -132.20792 36994 ft 475 kts 60°
2026-05-05 14:26 -0.07469 -132.14919 36994 ft 475 kts 60°
2026-05-05 14:27 -0.04547 -132.09074 36994 ft 475 kts 60°
2026-05-05 14:27 -0.01606 -132.03193 36993 ft 475 kts 60°
2026-05-05 14:28 0.01329 -131.97323 36994 ft 475 kts 60°
2026-05-05 14:28 0.04257 -131.91467 36993 ft 475 kts 60°
2026-05-05 14:29 0.07173 -131.85635 36994 ft 475 kts 60°
2026-05-05 14:29 0.10111 -131.79760 36994 ft 475 kts 60°
2026-05-05 14:30 0.13025 -131.73961 36996 ft 475 kts 60°
2026-05-05 14:30 0.15946 -131.68126 36995 ft 475 kts 60°
2026-05-05 14:31 0.18890 -131.62240 36996 ft 475 kts 60°
2026-05-05 14:31 0.21821 -131.56377 36994 ft 475 kts 60°
2026-05-05 14:32 0.24740 -131.50540 36995 ft 475 kts 60°
2026-05-05 14:32 0.27663 -131.44695 36995 ft 474 kts 60°
2026-05-05 14:33 0.30597 -131.38827 36995 ft 474 kts 60°
2026-05-05 14:33 0.33512 -131.32994 36994 ft 474 kts 61°
2026-05-05 14:34 0.36325 -131.27352 36994 ft 474 kts 61°
2026-05-05 14:34 0.39277 -131.21444 36994 ft 474 kts 61°
2026-05-05 14:35 0.42128 -131.15741 36994 ft 474 kts 61°
2026-05-05 14:35 0.45038 -131.09923 36994 ft 473 kts 61°
2026-05-05 14:36 0.47967 -131.04066 36995 ft 473 kts 61°
2026-05-05 14:36 0.50906 -130.98188 36994 ft 473 kts 61°
2026-05-05 14:37 0.53837 -130.92326 36996 ft 474 kts 61°
2026-05-05 14:37 0.56771 -130.86458 36994 ft 474 kts 61°
2026-05-05 14:38 0.59710 -130.80581 36994 ft 473 kts 61°
2026-05-05 14:38 0.62638 -130.74724 36994 ft 473 kts 61°
2026-05-05 14:39 0.65572 -130.68858 36994 ft 473 kts 61°
2026-05-05 14:39 0.68496 -130.63010 36995 ft 473 kts 61°
2026-05-05 14:40 0.71426 -130.57149 36994 ft 473 kts 61°
2026-05-05 14:40 0.74355 -130.51289 36994 ft 473 kts 61°
2026-05-05 14:41 0.77283 -130.45435 36994 ft 473 kts 61°
2026-05-05 14:41 0.80222 -130.39558 36995 ft 473 kts 61°
2026-05-05 14:42 0.83148 -130.33705 36994 ft 473 kts 61°
2026-05-05 14:42 0.86064 -130.27855 36994 ft 473 kts 61°
2026-05-05 14:43 0.88993 -130.21998 36994 ft 473 kts 61°
2026-05-05 14:43 0.91935 -130.16114 36994 ft 473 kts 61°
2026-05-05 14:44 0.94866 -130.10253 36994 ft 473 kts 61°
2026-05-05 14:44 0.97799 -130.04390 36995 ft 473 kts 61°
2026-05-05 14:45 1.00752 -129.98503 36993 ft 473 kts 61°
2026-05-05 14:45 1.03693 -129.92640 36994 ft 474 kts 61°
2026-05-05 14:46 1.06633 -129.86762 36993 ft 474 kts 61°
2026-05-05 14:46 1.09578 -129.80875 36994 ft 474 kts 61°
2026-05-05 14:47 1.12542 -129.74983 36995 ft 474 kts 61°
2026-05-05 14:47 1.15487 -129.69108 36995 ft 474 kts 61°
2026-05-05 14:48 1.18422 -129.63242 36995 ft 475 kts 61°
2026-05-05 14:48 1.21372 -129.57341 36994 ft 474 kts 61°
2026-05-05 14:49 1.24306 -129.51475 36996 ft 475 kts 61°
2026-05-05 14:49 1.27247 -129.45592 36994 ft 475 kts 61°
2026-05-05 14:50 1.30191 -129.39705 36995 ft 475 kts 61°
2026-05-05 14:50 1.33144 -129.33797 36995 ft 475 kts 62°
2026-05-05 14:51 1.36077 -129.27903 36995 ft 475 kts 61°
2026-05-05 14:51 1.39010 -129.22034 36994 ft 475 kts 61°
2026-05-05 14:52 1.41960 -129.16133 36995 ft 475 kts 61°
2026-05-05 14:52 1.44901 -129.10253 36996 ft 475 kts 61°
2026-05-05 14:53 1.47838 -129.04379 37003 ft 475 kts 62°
2026-05-05 14:53 1.50790 -128.98476 37009 ft 475 kts 62°
2026-05-05 14:54 1.53745 -128.92565 37016 ft 475 kts 62°
2026-05-05 14:54 1.56688 -128.86681 37022 ft 475 kts 62°
2026-05-05 14:55 1.59632 -128.80793 37021 ft 475 kts 62°
2026-05-05 14:55 1.62583 -128.74891 37021 ft 475 kts 62°
2026-05-05 14:56 1.65524 -128.69009 37021 ft 475 kts 62°
2026-05-05 14:56 1.68469 -128.63119 37022 ft 475 kts 62°
2026-05-05 14:57 1.71414 -128.57229 37021 ft 476 kts 62°
2026-05-05 14:57 1.74373 -128.51312 37021 ft 476 kts 62°
2026-05-05 14:58 1.77318 -128.45420 37019 ft 476 kts 62°
2026-05-05 14:58 1.80264 -128.39529 37014 ft 476 kts 62°
2026-05-05 14:59 1.83207 -128.33643 37009 ft 476 kts 62°
2026-05-05 14:59 1.86128 -128.27777 37004 ft 476 kts 62°
2026-05-05 15:00 1.89077 -128.21875 36999 ft 476 kts 62°
2026-05-05 15:00 1.92021 -128.15989 36995 ft 475 kts 62°
2026-05-05 15:01 1.94978 -128.10073 37000 ft 475 kts 62°
2026-05-05 15:01 1.97923 -128.04184 37007 ft 476 kts 62°
2026-05-05 15:02 2.00872 -127.98286 37014 ft 476 kts 62°
2026-05-05 15:02 2.03829 -127.92372 37020 ft 476 kts 62°
2026-05-05 15:03 2.06775 -127.86480 37021 ft 476 kts 62°
2026-05-05 15:03 2.09724 -127.80582 37022 ft 476 kts 62°
2026-05-05 15:04 2.12683 -127.74700 37021 ft 475 kts 62°
2026-05-05 15:04 2.15638 -127.68802 37022 ft 475 kts 62°
2026-05-05 15:05 2.20042 -127.59998 37022 ft 475 kts 62°
2026-05-05 15:06 2.22985 -127.54113 37021 ft 475 kts 62°
2026-05-05 15:06 2.25941 -127.48201 37029 ft 475 kts 62°
2026-05-05 15:07 2.28886 -127.42311 37037 ft 475 kts 62°
2026-05-05 15:07 2.31830 -127.36423 37048 ft 474 kts 62°
2026-05-05 15:08 2.34767 -127.30529 37057 ft 474 kts 62°
2026-05-05 15:08 2.37698 -127.24656 37067 ft 474 kts 62°
2026-05-05 15:09 2.40632 -127.18787 37077 ft 474 kts 62°
2026-05-05 15:09 2.43569 -127.12912 37075 ft 474 kts 62°
2026-05-05 15:10 2.46517 -127.07017 37077 ft 473 kts 62°
2026-05-05 15:10 2.49448 -127.01155 37074 ft 473 kts 62°
2026-05-05 15:11 2.52381 -126.95291 37075 ft 473 kts 62°
2026-05-05 15:11 2.55328 -126.89397 37075 ft 473 kts 62°
2026-05-05 15:12 2.58264 -126.83525 37075 ft 473 kts 62°
2026-05-05 15:12 2.61195 -126.77664 37076 ft 473 kts 62°
2026-05-05 15:13 2.64127 -126.71800 37075 ft 473 kts 62°
2026-05-05 15:13 2.67071 -126.65913 37075 ft 473 kts 62°
2026-05-05 15:14 2.69998 -126.60059 37076 ft 472 kts 62°
2026-05-05 15:14 2.72930 -126.54196 37075 ft 472 kts 62°
2026-05-05 15:15 2.75870 -126.48315 37075 ft 472 kts 62°
2026-05-05 15:15 2.78793 -126.42470 37076 ft 472 kts 62°
2026-05-05 15:16 2.81719 -126.36617 37075 ft 472 kts 62°
2026-05-05 15:16 2.84634 -126.30771 37075 ft 472 kts 62°
2026-05-05 15:17 2.87514 -126.25000 37075 ft 472 kts 62°
2026-05-05 15:17 2.90435 -126.19154 37073 ft 472 kts 62°
2026-05-05 15:18 2.93361 -126.13303 37069 ft 472 kts 62°
2026-05-05 15:18 2.96296 -126.07432 37065 ft 472 kts 62°
2026-05-05 15:19 2.99222 -126.01581 37065 ft 472 kts 62°
2026-05-05 15:19 3.02145 -125.95734 37065 ft 471 kts 62°
2026-05-05 15:20 3.05071 -125.89885 37065 ft 471 kts 62°
2026-05-05 15:20 3.07995 -125.84036 37089 ft 469 kts 62°
2026-05-05 15:21 3.10916 -125.78199 37083 ft 471 kts 62°
2026-05-05 15:21 3.13846 -125.72376 37083 ft 471 kts 62°
2026-05-05 15:22 3.16781 -125.66511 37084 ft 471 kts 62°
2026-05-05 15:22 3.19700 -125.60675 37083 ft 471 kts 62°
2026-05-05 15:23 3.22621 -125.54833 37084 ft 471 kts 62°
2026-05-05 15:23 3.25540 -125.48996 37084 ft 471 kts 62°
2026-05-05 15:24 3.28471 -125.43133 37084 ft 471 kts 62°
2026-05-05 15:24 3.31393 -125.37291 37083 ft 471 kts 62°
2026-05-05 15:25 3.34303 -125.31455 37084 ft 471 kts 62°
2026-05-05 15:25 3.37216 -125.25612 37084 ft 471 kts 62°
2026-05-05 15:26 3.40138 -125.19767 37084 ft 471 kts 62°
2026-05-05 15:26 3.43053 -125.13937 37083 ft 470 kts 62°
2026-05-05 15:27 3.45969 -125.08105 37084 ft 470 kts 62°
2026-05-05 15:27 3.48896 -125.02251 37084 ft 470 kts 62°
2026-05-05 15:28 3.51815 -124.96414 37084 ft 470 kts 62°
2026-05-05 15:28 3.54736 -124.90572 37083 ft 471 kts 62°
2026-05-05 15:29 3.57672 -124.84700 37084 ft 471 kts 62°
2026-05-05 15:29 3.60590 -124.78866 37084 ft 470 kts 62°
2026-05-05 15:30 3.63514 -124.73018 37084 ft 472 kts 62°
2026-05-05 15:30 3.66438 -124.67169 37083 ft 471 kts 62°
2026-05-05 15:31 3.69372 -124.61302 37083 ft 471 kts 62°
2026-05-05 15:31 3.72296 -124.55454 37084 ft 471 kts 62°
2026-05-05 15:32 3.75224 -124.49599 37082 ft 471 kts 62°
2026-05-05 15:32 3.78152 -124.43742 37085 ft 470 kts 62°
2026-05-05 15:33 3.81070 -124.37907 37083 ft 471 kts 62°
2026-05-05 15:33 3.83991 -124.32056 37084 ft 471 kts 62°
2026-05-05 15:34 3.86905 -124.26208 37083 ft 471 kts 62°
2026-05-05 15:34 3.89833 -124.20349 37083 ft 471 kts 62°
2026-05-05 15:35 3.92757 -124.14501 37083 ft 471 kts 62°
2026-05-05 15:35 3.96174 -124.07668 37084 ft 471 kts 62°
2026-05-05 15:36 3.98617 -124.02782 37075 ft 471 kts 62°
2026-05-05 15:36 4.01541 -123.96933 37062 ft 471 kts 62°
2026-05-05 15:37 4.04466 -123.91084 37052 ft 471 kts 62°
2026-05-05 15:37 4.07389 -123.85240 37040 ft 471 kts 62°
2026-05-05 15:38 4.10321 -123.79375 37037 ft 471 kts 62°
2026-05-05 15:38 4.13255 -123.73543 37038 ft 471 kts 62°
2026-05-05 15:39 4.16178 -123.67703 37038 ft 471 kts 62°
2026-05-05 15:39 4.19116 -123.61830 37038 ft 471 kts 62°
2026-05-05 15:40 4.22036 -123.55990 37038 ft 471 kts 62°
2026-05-05 15:40 4.24958 -123.50146 37038 ft 471 kts 62°
2026-05-05 15:41 4.27881 -123.44301 37037 ft 471 kts 62°
2026-05-05 15:41 4.30818 -123.38427 37038 ft 472 kts 62°
2026-05-05 15:42 4.33742 -123.32572 37039 ft 472 kts 62°
2026-05-05 15:42 4.36661 -123.26710 37038 ft 472 kts 62°
2026-05-05 15:43 4.39599 -123.20831 37038 ft 471 kts 62°
2026-05-05 15:43 4.42522 -123.14985 37038 ft 471 kts 62°
2026-05-05 15:44 4.45449 -123.09130 37036 ft 471 kts 62°
2026-05-05 15:44 4.48376 -123.03278 37033 ft 470 kts 62°
2026-05-05 15:45 4.51306 -122.97418 37033 ft 470 kts 62°
2026-05-05 15:45 4.54225 -122.91580 37043 ft 470 kts 62°
2026-05-05 15:46 4.57145 -122.85740 37037 ft 470 kts 62°
2026-05-05 15:46 4.60081 -122.79869 37039 ft 471 kts 62°
2026-05-05 15:47 4.63003 -122.74024 37037 ft 471 kts 62°
2026-05-05 15:47 4.65931 -122.68170 37038 ft 471 kts 62°
2026-05-05 15:48 4.68855 -122.62323 37037 ft 471 kts 62°
2026-05-05 15:48 4.71792 -122.56449 37038 ft 471 kts 62°
2026-05-05 15:49 4.74715 -122.50604 37037 ft 471 kts 62°
2026-05-05 15:49 4.77642 -122.44750 37038 ft 470 kts 62°
2026-05-05 15:50 4.80575 -122.38884 37037 ft 470 kts 62°
2026-05-05 15:50 4.83490 -122.33048 37038 ft 470 kts 62°
2026-05-05 15:51 4.86396 -122.27211 37037 ft 470 kts 62°
2026-05-05 15:51 4.89312 -122.21377 37038 ft 470 kts 62°
2026-05-05 15:52 4.92238 -122.15523 37038 ft 470 kts 62°
2026-05-05 15:52 4.95156 -122.09687 37037 ft 470 kts 62°
2026-05-05 15:53 4.98074 -122.03853 37038 ft 471 kts 62°
2026-05-05 15:53 5.01004 -121.97993 37038 ft 468 kts 62°
2026-05-05 15:54 5.03911 -121.92180 37037 ft 468 kts 62°
2026-05-05 15:54 5.06817 -121.86368 37038 ft 468 kts 62°
2026-05-05 15:55 5.09725 -121.80551 37038 ft 469 kts 62°
2026-05-05 15:55 5.12652 -121.74728 37038 ft 469 kts 62°
2026-05-05 15:56 5.15566 -121.68908 37039 ft 468 kts 62°
2026-05-05 15:56 5.18473 -121.63096 37037 ft 468 kts 62°
2026-05-05 15:57 5.21391 -121.57260 37038 ft 468 kts 62°
2026-05-05 15:57 5.24300 -121.51443 37038 ft 468 kts 62°
2026-05-05 15:58 5.27208 -121.45630 37038 ft 468 kts 62°
2026-05-05 15:58 5.30117 -121.39810 37037 ft 468 kts 62°
2026-05-05 15:59 5.33031 -121.33982 37038 ft 468 kts 62°
2026-05-05 15:59 5.35923 -121.28167 37038 ft 468 kts 62°
2026-05-05 16:00 5.38819 -121.22371 37038 ft 468 kts 62°
2026-05-05 16:00 5.41738 -121.16533 37038 ft 468 kts 62°
2026-05-05 16:01 5.44650 -121.10708 37038 ft 468 kts 62°
2026-05-05 16:01 5.47560 -121.04890 37036 ft 468 kts 62°
2026-05-05 16:02 5.50465 -120.99080 37039 ft 467 kts 62°
2026-05-05 16:02 5.53381 -120.93247 37038 ft 468 kts 62°
2026-05-05 16:03 5.56287 -120.87436 37038 ft 468 kts 62°
2026-05-05 16:03 5.59190 -120.81630 37038 ft 467 kts 62°
2026-05-05 16:04 5.62107 -120.75798 37038 ft 467 kts 62°
2026-05-05 16:04 5.65012 -120.69987 37038 ft 467 kts 62°
2026-05-05 16:05 5.67916 -120.64181 37037 ft 467 kts 62°
2026-05-05 16:05 5.70826 -120.58361 37037 ft 467 kts 62°
2026-05-05 16:06 5.73739 -120.52536 37037 ft 467 kts 62°
2026-05-05 16:06 5.76634 -120.46745 37038 ft 466 kts 62°
2026-05-05 16:07 5.79533 -120.40947 37036 ft 466 kts 62°
2026-05-05 16:07 5.82443 -120.35127 37038 ft 466 kts 62°
2026-05-05 16:08 5.85333 -120.29321 37038 ft 466 kts 62°
2026-05-05 16:08 5.88223 -120.23535 37037 ft 466 kts 62°
2026-05-05 16:09 5.91122 -120.17738 37036 ft 466 kts 62°
2026-05-05 16:09 5.94032 -120.11920 37033 ft 466 kts 62°
2026-05-05 16:10 5.96928 -120.06129 37031 ft 466 kts 62°
2026-05-05 16:10 5.99821 -120.00331 37028 ft 466 kts 63°
2026-05-05 16:11 6.02314 -119.94310 37028 ft 467 kts 66°
2026-05-05 16:12 6.07154 -119.82256 37028 ft 467 kts 66°
2026-05-05 16:13 6.13210 -119.67176 37029 ft 467 kts 66°
2026-05-05 16:13 6.15620 -119.61161 37029 ft 467 kts 66°
2026-05-05 16:14 6.20464 -119.49054 37029 ft 468 kts 66°
2026-05-05 16:15 6.25300 -119.36968 37029 ft 468 kts 66°
2026-05-05 16:16 6.30122 -119.24864 37029 ft 469 kts 66°
2026-05-05 16:17 6.33751 -119.15788 37029 ft 468 kts 66°
2026-05-05 16:18 6.37391 -119.06689 37029 ft 468 kts 66°
2026-05-05 16:19 6.41023 -118.97611 37031 ft 468 kts 66°
2026-05-05 16:19 6.44663 -118.88510 37034 ft 468 kts 66°
2026-05-05 16:20 6.49510 -118.76397 37037 ft 468 kts 66°
2026-05-05 16:22 6.55582 -118.61218 37038 ft 469 kts 66°
2026-05-05 16:23 6.60434 -118.49089 37037 ft 469 kts 66°
2026-05-05 16:23 6.64079 -118.39978 37037 ft 469 kts 66°
2026-05-05 16:24 6.66502 -118.33921 37038 ft 469 kts 66°
2026-05-05 16:25 6.70131 -118.24802 37038 ft 469 kts 66°
2026-05-05 16:25 6.73762 -118.15723 37038 ft 469 kts 66°
2026-05-05 16:26 6.78626 -118.03564 37047 ft 469 kts 66°
2026-05-05 16:27 6.81053 -117.97496 37046 ft 469 kts 66°
2026-05-05 16:27 6.83482 -117.91426 37047 ft 469 kts 66°
2026-05-05 16:28 6.85911 -117.85353 37047 ft 469 kts 66°
2026-05-05 16:28 6.88351 -117.79256 37046 ft 470 kts 66°
2026-05-05 16:29 6.90787 -117.73165 37047 ft 470 kts 66°
2026-05-05 16:29 6.93223 -117.67075 37046 ft 470 kts 66°
2026-05-05 16:30 6.95663 -117.60976 37047 ft 470 kts 66°
2026-05-05 16:30 6.98098 -117.54890 37046 ft 470 kts 66°
2026-05-05 16:31 7.00540 -117.48785 37046 ft 470 kts 66°
2026-05-05 16:31 7.02975 -117.42698 37046 ft 470 kts 66°
2026-05-05 16:32 7.05419 -117.36590 37046 ft 470 kts 66°
2026-05-05 16:32 7.07847 -117.30490 37046 ft 471 kts 66°
2026-05-05 16:33 7.10277 -117.24401 37048 ft 472 kts 66°
2026-05-05 16:33 7.12736 -117.18297 37047 ft 472 kts 66°
2026-05-05 16:34 7.15181 -117.12194 37048 ft 472 kts 66°
2026-05-05 16:34 7.17621 -117.06097 37034 ft 472 kts 66°
2026-05-05 16:35 7.20059 -117.00003 37021 ft 471 kts 66°
2026-05-05 16:35 7.22509 -116.93880 37006 ft 471 kts 66°
2026-05-05 16:36 7.24951 -116.87776 36992 ft 471 kts 66°
2026-05-05 16:36 7.27398 -116.81660 36993 ft 472 kts 66°
2026-05-05 16:37 7.29851 -116.75528 36992 ft 472 kts 66°
2026-05-05 16:37 7.32298 -116.69410 36992 ft 472 kts 66°
2026-05-05 16:38 7.34740 -116.63306 36992 ft 472 kts 66°
2026-05-05 16:38 7.37187 -116.57191 36992 ft 472 kts 66°
2026-05-05 16:39 7.39641 -116.51057 36992 ft 472 kts 66°
2026-05-05 16:39 7.42091 -116.44932 36992 ft 473 kts 66°
2026-05-05 16:40 7.44546 -116.38796 36991 ft 473 kts 66°
2026-05-05 16:40 7.47004 -116.32643 36993 ft 473 kts 67°
2026-05-05 16:41 7.49441 -116.26511 36992 ft 473 kts 66°
2026-05-05 16:41 7.51890 -116.20384 36993 ft 473 kts 66°
2026-05-05 16:42 7.54338 -116.14266 36991 ft 473 kts 66°
2026-05-05 16:42 7.56803 -116.08102 36992 ft 473 kts 67°
2026-05-05 16:43 7.59258 -116.01965 36992 ft 474 kts 66°
2026-05-05 16:43 7.61719 -115.95816 36992 ft 474 kts 66°
2026-05-05 16:44 7.64185 -115.89651 36991 ft 474 kts 66°
2026-05-05 16:44 7.66643 -115.83507 36992 ft 474 kts 66°
2026-05-05 16:45 7.69103 -115.77358 36992 ft 474 kts 66°
2026-05-05 16:45 7.71561 -115.71213 36992 ft 474 kts 66°
2026-05-05 16:46 7.74028 -115.65047 36992 ft 474 kts 66°
2026-05-05 16:46 7.76484 -115.58907 36990 ft 474 kts 66°
2026-05-05 16:47 7.78944 -115.52759 36992 ft 474 kts 66°
2026-05-05 16:47 7.81411 -115.46592 36991 ft 474 kts 66°
2026-05-05 16:48 7.83871 -115.40443 36991 ft 475 kts 66°
2026-05-05 16:48 7.86334 -115.34287 36992 ft 475 kts 67°
2026-05-05 16:49 7.88777 -115.28135 36991 ft 475 kts 67°
2026-05-05 16:49 7.91242 -115.21966 36992 ft 475 kts 67°
2026-05-05 16:50 7.93702 -115.15817 36988 ft 475 kts 67°
2026-05-05 16:50 7.96164 -115.09661 36980 ft 475 kts 67°
2026-05-05 16:51 7.98637 -115.03480 36973 ft 475 kts 67°
2026-05-05 16:51 8.01102 -114.97317 36967 ft 476 kts 67°
2026-05-05 16:52 8.03576 -114.91135 36964 ft 477 kts 67°
2026-05-05 16:52 8.06051 -114.84948 36964 ft 476 kts 67°
2026-05-05 16:53 8.08534 -114.78740 36964 ft 477 kts 67°
2026-05-05 16:53 8.11012 -114.72559 36965 ft 477 kts 67°
2026-05-05 16:54 8.13496 -114.66387 36965 ft 477 kts 67°
2026-05-05 16:54 8.15979 -114.60186 36965 ft 477 kts 67°
2026-05-05 16:55 8.18456 -114.53996 36965 ft 477 kts 67°
2026-05-05 16:55 8.20932 -114.47806 36965 ft 477 kts 67°
2026-05-05 16:56 8.23411 -114.41612 36964 ft 477 kts 67°
2026-05-05 16:56 8.25902 -114.35385 36965 ft 477 kts 67°
2026-05-05 16:57 8.28362 -114.29192 36965 ft 478 kts 67°
2026-05-05 16:57 8.30838 -114.22990 36965 ft 477 kts 67°
2026-05-05 16:58 8.33321 -114.16782 36964 ft 477 kts 67°
2026-05-05 16:58 8.35799 -114.10587 36965 ft 477 kts 67°
2026-05-05 16:59 8.38275 -114.04399 36965 ft 477 kts 67°
2026-05-05 16:59 8.40753 -113.98206 36965 ft 477 kts 67°
2026-05-05 17:00 8.43224 -113.92030 36965 ft 477 kts 67°
2026-05-05 17:00 8.45698 -113.85846 36964 ft 477 kts 67°
2026-05-05 17:01 8.48176 -113.79651 36965 ft 478 kts 67°
2026-05-05 17:01 8.50666 -113.73427 36965 ft 478 kts 67°
2026-05-05 17:02 8.53145 -113.67229 36965 ft 478 kts 67°
2026-05-05 17:02 8.55625 -113.61031 36964 ft 478 kts 67°
2026-05-05 17:03 8.58107 -113.54828 36964 ft 478 kts 67°
2026-05-05 17:03 8.60599 -113.48597 36964 ft 479 kts 67°
2026-05-05 17:04 8.63087 -113.42379 36964 ft 479 kts 67°
2026-05-05 17:04 8.65573 -113.36166 36964 ft 479 kts 67°
2026-05-05 17:05 8.68051 -113.29936 36965 ft 479 kts 68°
2026-05-05 17:05 8.70537 -113.23705 36964 ft 480 kts 67°
2026-05-05 17:06 8.73024 -113.17485 36965 ft 479 kts 67°
2026-05-05 17:06 8.75513 -113.11262 36964 ft 479 kts 68°
2026-05-05 17:07 8.78014 -113.05011 36964 ft 480 kts 68°
2026-05-05 17:07 8.80504 -112.98787 36965 ft 480 kts 68°
2026-05-05 17:08 8.82999 -112.92550 36964 ft 480 kts 68°
2026-05-05 17:08 8.85500 -112.86299 36964 ft 480 kts 68°
2026-05-05 17:09 8.87992 -112.80069 36964 ft 480 kts 68°
2026-05-05 17:09 8.90481 -112.73848 36964 ft 479 kts 68°
2026-05-05 17:10 8.92949 -112.67679 36965 ft 479 kts 68°
2026-05-05 17:10 8.95449 -112.61430 36964 ft 479 kts 68°
2026-05-05 17:11 8.97938 -112.55208 36963 ft 479 kts 68°
2026-05-05 17:11 9.00428 -112.48984 36962 ft 479 kts 68°
2026-05-05 17:12 9.02934 -112.42721 36961 ft 480 kts 68°
2026-05-05 17:12 9.05427 -112.36490 36959 ft 480 kts 68°
2026-05-05 17:13 9.07904 -112.30264 36959 ft 479 kts 68°
2026-05-05 17:13 9.10396 -112.24019 36956 ft 480 kts 68°
2026-05-05 17:14 9.12913 -112.17763 36956 ft 480 kts 68°
2026-05-05 17:14 9.15410 -112.11528 36955 ft 480 kts 68°
2026-05-05 17:15 9.17905 -112.05291 36956 ft 480 kts 68°
2026-05-05 17:15 9.20409 -111.99033 36956 ft 480 kts 68°
2026-05-05 17:16 9.22911 -111.92780 36955 ft 481 kts 68°
2026-05-05 17:16 9.25415 -111.86521 36955 ft 481 kts 68°
2026-05-05 17:17 9.27915 -111.80272 36955 ft 481 kts 68°
2026-05-05 17:17 9.30423 -111.74004 36954 ft 481 kts 68°
2026-05-05 17:18 9.32931 -111.67735 36956 ft 481 kts 68°
2026-05-05 17:18 9.35432 -111.61482 36956 ft 481 kts 68°
2026-05-05 17:19 9.37947 -111.55197 36956 ft 481 kts 68°
2026-05-05 17:19 9.40448 -111.48946 36955 ft 481 kts 68°
2026-05-05 17:20 9.42952 -111.42687 36955 ft 481 kts 68°
2026-05-05 17:20 9.45454 -111.36433 36956 ft 482 kts 68°
2026-05-05 17:21 9.47954 -111.30145 36956 ft 482 kts 68°
2026-05-05 17:22 9.51706 -111.20748 36955 ft 482 kts 68°
2026-05-05 17:22 9.54217 -111.14471 36955 ft 482 kts 68°
2026-05-05 17:23 9.56737 -111.08173 36959 ft 482 kts 68°
2026-05-05 17:23 9.59249 -111.01892 36962 ft 483 kts 68°
2026-05-05 17:24 9.61762 -110.95611 36968 ft 483 kts 68°
2026-05-05 17:24 9.64287 -110.89300 36972 ft 483 kts 68°
2026-05-05 17:25 9.66807 -110.83000 36974 ft 484 kts 68°
2026-05-05 17:25 9.69304 -110.76758 36974 ft 484 kts 68°
2026-05-05 17:26 9.71824 -110.70457 36974 ft 484 kts 68°
2026-05-05 17:26 9.74352 -110.64139 36974 ft 484 kts 68°
2026-05-05 17:27 9.76872 -110.57841 36974 ft 484 kts 68°
2026-05-05 17:27 9.79398 -110.51527 36974 ft 485 kts 68°
2026-05-05 17:28 9.81935 -110.45184 36974 ft 485 kts 68°
2026-05-05 17:28 9.84462 -110.38868 36974 ft 485 kts 68°
2026-05-05 17:29 9.86988 -110.32542 36974 ft 485 kts 69°
2026-05-05 17:29 9.89501 -110.26224 36974 ft 485 kts 69°
2026-05-05 17:30 9.92035 -110.19889 36973 ft 485 kts 69°
2026-05-05 17:30 9.94567 -110.13562 36976 ft 485 kts 69°
2026-05-05 17:31 9.97094 -110.07247 36980 ft 485 kts 69°
2026-05-05 17:31 9.99635 -110.00904 36985 ft 485 kts 68°
2026-05-05 17:32 10.02230 -109.94619 36991 ft 485 kts 68°
2026-05-05 17:32 10.04771 -109.88302 36992 ft 485 kts 69°
2026-05-05 17:33 10.07306 -109.81973 36992 ft 485 kts 69°
2026-05-05 17:33 10.09844 -109.75628 36990 ft 485 kts 69°
2026-05-05 17:34 10.12394 -109.69306 36987 ft 485 kts 69°
2026-05-05 17:34 10.14925 -109.62993 36984 ft 485 kts 69°
2026-05-05 17:35 10.17462 -109.56654 36981 ft 485 kts 69°
2026-05-05 17:35 10.19987 -109.50343 36979 ft 485 kts 69°
2026-05-05 17:36 10.22517 -109.44022 36975 ft 485 kts 69°
2026-05-05 17:36 10.25046 -109.37699 36973 ft 485 kts 69°
2026-05-05 17:37 10.27572 -109.31357 36974 ft 484 kts 69°
2026-05-05 17:37 10.30086 -109.25039 36973 ft 484 kts 69°
2026-05-05 17:38 10.32605 -109.18738 36974 ft 484 kts 69°
2026-05-05 17:38 10.35137 -109.12406 36983 ft 484 kts 69°
2026-05-05 17:39 10.37661 -109.06097 36989 ft 484 kts 69°
2026-05-05 17:39 10.40189 -108.99780 36996 ft 484 kts 69°
2026-05-05 17:40 10.42716 -108.93463 37000 ft 484 kts 69°
2026-05-05 17:40 10.45250 -108.87130 37001 ft 484 kts 69°
2026-05-05 17:41 10.47777 -108.80815 37001 ft 484 kts 69°
2026-05-05 17:41 10.50305 -108.74495 37002 ft 484 kts 69°
2026-05-05 17:42 10.52840 -108.68160 37001 ft 484 kts 69°
2026-05-05 17:42 10.55368 -108.61842 37001 ft 484 kts 69°
2026-05-05 17:43 10.57894 -108.55527 37000 ft 484 kts 70°
2026-05-05 17:43 10.60421 -108.49210 37001 ft 484 kts 70°
2026-05-05 17:44 10.62957 -108.42870 37001 ft 484 kts 70°
2026-05-05 17:44 10.65484 -108.36553 37001 ft 484 kts 70°
2026-05-05 17:45 10.67997 -108.30232 37001 ft 484 kts 70°
2026-05-05 17:45 10.70526 -108.23890 37001 ft 484 kts 70°
2026-05-05 17:46 10.73053 -108.17570 36999 ft 484 kts 70°
2026-05-05 17:46 10.75578 -108.11257 36996 ft 484 kts 70°
2026-05-05 17:47 10.78104 -108.04946 36994 ft 484 kts 70°
2026-05-05 17:47 10.80630 -107.98629 36993 ft 484 kts 70°
2026-05-05 17:48 10.83148 -107.92336 36992 ft 484 kts 70°
2026-05-05 17:48 10.85673 -107.86025 36992 ft 483 kts 70°
2026-05-05 17:49 10.88204 -107.79699 36993 ft 483 kts 70°
2026-05-05 17:49 10.90724 -107.73399 36993 ft 483 kts 70°
2026-05-05 17:50 10.93247 -107.67094 36992 ft 483 kts 70°
2026-05-05 17:50 10.95741 -107.60859 36992 ft 483 kts 70°
2026-05-05 17:51 10.98270 -107.54538 36993 ft 483 kts 70°
2026-05-05 17:51 11.00791 -107.48236 36993 ft 483 kts 70°
2026-05-05 17:52 11.03306 -107.41950 36992 ft 482 kts 70°
2026-05-05 17:52 11.05835 -107.35628 36992 ft 482 kts 70°
2026-05-05 17:53 11.08340 -107.29320 36993 ft 482 kts 70°
2026-05-05 17:53 11.10858 -107.23020 36991 ft 482 kts 70°
2026-05-05 17:54 11.13389 -107.16734 36992 ft 482 kts 70°
2026-05-05 17:54 11.15922 -107.10408 36993 ft 482 kts 70°
2026-05-05 17:55 11.18437 -107.04123 36991 ft 482 kts 70°
2026-05-05 17:55 11.20950 -106.97842 36994 ft 482 kts 70°
2026-05-05 17:56 11.23476 -106.91528 36996 ft 482 kts 70°
2026-05-05 17:56 11.25995 -106.85232 36999 ft 482 kts 70°
2026-05-05 17:57 11.28516 -106.78932 37001 ft 482 kts 70°
2026-05-05 17:57 11.31031 -106.72643 37001 ft 482 kts 70°
2026-05-05 17:58 11.33562 -106.66319 37001 ft 482 kts 70°
2026-05-05 17:58 11.36082 -106.60021 37000 ft 482 kts 70°
2026-05-05 17:59 11.38601 -106.53724 36999 ft 482 kts 70°
2026-05-05 17:59 11.41127 -106.47409 36999 ft 481 kts 70°
2026-05-05 18:00 11.43646 -106.41114 36996 ft 481 kts 70°
2026-05-05 18:00 11.46165 -106.34818 36996 ft 482 kts 70°
2026-05-05 18:01 11.48668 -106.28506 36994 ft 482 kts 70°
2026-05-05 18:01 11.51602 -106.21162 36992 ft 481 kts 70°
2026-05-05 18:02 11.53703 -106.15909 36992 ft 481 kts 70°
2026-05-05 18:02 11.56221 -106.09615 36992 ft 481 kts 70°
2026-05-05 18:03 11.58748 -106.03298 36991 ft 481 kts 70°
2026-05-05 18:03 11.61268 -105.96998 36988 ft 481 kts 70°
2026-05-05 18:04 11.63792 -105.90689 36986 ft 482 kts 70°
2026-05-05 18:04 11.66311 -105.84393 36983 ft 482 kts 70°
2026-05-05 18:05 11.68842 -105.78069 36983 ft 482 kts 70°
2026-05-05 18:05 11.71360 -105.71774 36983 ft 482 kts 70°
2026-05-05 18:06 11.73882 -105.65469 36983 ft 482 kts 70°
2026-05-05 18:06 11.76827 -105.58107 36983 ft 482 kts 70°
2026-05-05 18:07 11.78929 -105.52855 36983 ft 482 kts 70°
2026-05-05 18:07 11.81451 -105.46550 36983 ft 482 kts 70°
2026-05-05 18:08 11.83972 -105.40249 36983 ft 482 kts 69°
2026-05-05 18:08 11.86505 -105.33916 36982 ft 482 kts 70°
2026-05-05 18:09 11.89009 -105.27602 36981 ft 482 kts 70°
2026-05-05 18:09 11.91533 -105.21286 36979 ft 482 kts 70°
2026-05-05 18:10 11.94066 -105.14953 36978 ft 482 kts 70°
2026-05-05 18:10 11.96593 -105.08635 36973 ft 482 kts 70°
2026-05-05 18:11 11.99119 -105.02321 36967 ft 483 kts 69°
2026-05-05 18:11 12.01647 -104.96002 36963 ft 483 kts 69°
2026-05-05 18:12 12.04189 -104.89648 36957 ft 483 kts 69°
2026-05-05 18:12 12.06719 -104.83324 36956 ft 483 kts 69°
2026-05-05 18:13 12.09252 -104.76993 36956 ft 483 kts 69°
2026-05-05 18:13 12.11806 -104.70642 36956 ft 483 kts 69°
2026-05-05 18:14 12.14346 -104.64314 36955 ft 484 kts 69°
2026-05-05 18:14 12.16872 -104.58004 36955 ft 484 kts 69°
2026-05-05 18:15 12.19404 -104.51676 36955 ft 484 kts 69°
2026-05-05 18:15 12.21947 -104.45320 36956 ft 484 kts 69°
2026-05-05 18:16 12.24460 -104.39039 36950 ft 482 kts 70°
2026-05-05 18:16 12.26980 -104.32729 36945 ft 482 kts 70°
2026-05-05 18:17 12.29497 -104.26384 36947 ft 482 kts 70°
2026-05-05 18:17 12.32025 -104.20058 36947 ft 482 kts 70°
2026-05-05 18:18 12.34978 -104.12676 36947 ft 482 kts 70°
2026-05-05 18:18 12.37083 -104.07416 36946 ft 482 kts 70°
2026-05-05 18:19 12.39621 -104.01072 36946 ft 482 kts 70°
2026-05-05 18:19 12.42151 -103.94748 36946 ft 482 kts 70°
2026-05-05 18:20 12.44680 -103.88427 36946 ft 482 kts 70°
2026-05-05 18:20 12.47214 -103.82092 36946 ft 482 kts 70°
2026-05-05 18:21 12.49746 -103.75766 36946 ft 482 kts 70°
2026-05-05 18:21 12.52274 -103.69445 36947 ft 483 kts 70°
2026-05-05 18:22 12.54808 -103.63113 36946 ft 482 kts 70°
2026-05-05 18:22 12.57349 -103.56760 36946 ft 483 kts 69°
2026-05-05 18:23 12.60311 -103.49358 36946 ft 483 kts 69°
2026-05-05 18:23 12.62421 -103.44082 36946 ft 483 kts 69°
2026-05-05 18:24 12.65377 -103.36695 36946 ft 483 kts 69°
2026-05-05 18:24 12.67487 -103.31393 36946 ft 483 kts 70°
2026-05-05 18:25 12.70435 -103.23988 36948 ft 483 kts 69°
2026-05-05 18:25 12.72967 -103.17654 36947 ft 483 kts 69°
2026-05-05 18:26 12.75503 -103.11314 36954 ft 483 kts 69°
2026-05-05 18:26 12.78054 -103.04939 36957 ft 483 kts 69°
2026-05-05 18:27 12.80593 -102.98594 36963 ft 484 kts 69°
2026-05-05 18:27 12.82717 -102.93283 36964 ft 484 kts 69°
2026-05-05 18:28 12.86491 -102.83851 36966 ft 484 kts 69°
2026-05-05 18:28 12.89461 -102.76426 36965 ft 484 kts 69°
2026-05-05 18:29 12.91585 -102.71119 36965 ft 484 kts 69°
2026-05-05 18:29 12.94543 -102.63725 36964 ft 484 kts 69°
2026-05-05 18:30 12.96657 -102.58440 36965 ft 484 kts 69°
2026-05-05 18:30 12.99202 -102.52080 36964 ft 484 kts 69°
2026-05-05 18:31 13.02165 -102.44673 36965 ft 484 kts 69°
2026-05-05 18:31 13.04290 -102.39361 36965 ft 484 kts 69°
2026-05-05 18:32 13.07254 -102.31933 36965 ft 484 kts 69°
2026-05-05 18:32 13.09786 -102.25563 36965 ft 484 kts 69°
2026-05-05 18:33 13.12349 -102.19185 36969 ft 484 kts 69°
2026-05-05 18:33 13.14901 -102.12816 36976 ft 484 kts 69°
2026-05-05 18:34 13.17019 -102.07523 36981 ft 484 kts 69°
2026-05-05 18:34 13.19992 -102.00093 36987 ft 484 kts 69°
2026-05-05 18:35 13.22123 -101.94768 36986 ft 484 kts 69°
2026-05-05 18:35 13.25101 -101.87325 36985 ft 484 kts 69°
2026-05-05 18:36 13.27232 -101.81996 36984 ft 484 kts 69°
2026-05-05 18:36 13.30208 -101.74559 36982 ft 484 kts 69°
2026-05-05 18:37 13.32759 -101.68184 36983 ft 485 kts 68°
2026-05-05 18:37 13.35310 -101.61806 36983 ft 485 kts 68°
2026-05-05 18:38 13.37863 -101.55425 36982 ft 485 kts 68°
2026-05-05 18:38 13.39995 -101.50098 36983 ft 485 kts 68°
2026-05-05 18:39 13.42972 -101.42657 36982 ft 484 kts 68°
2026-05-05 18:39 13.45529 -101.36266 36983 ft 485 kts 68°
2026-05-05 18:40 13.47645 -101.30940 36983 ft 484 kts 69°
2026-05-05 18:40 13.50161 -101.24623 36983 ft 485 kts 69°
2026-05-05 18:41 13.53145 -101.17158 36983 ft 485 kts 68°
2026-05-05 18:41 13.55280 -101.11821 36983 ft 485 kts 68°
2026-05-05 18:42 13.58267 -101.04355 36983 ft 485 kts 69°
2026-05-05 18:42 13.60823 -100.97966 36972 ft 485 kts 69°
2026-05-05 18:43 13.62956 -100.92634 36962 ft 485 kts 68°
2026-05-05 18:43 13.65942 -100.85172 36948 ft 486 kts 68°
2026-05-05 18:44 13.68502 -100.78773 36936 ft 486 kts 68°
2026-05-05 18:44 13.70634 -100.73444 36937 ft 486 kts 68°
2026-05-05 18:45 13.73628 -100.65959 36937 ft 486 kts 68°
2026-05-05 18:45 13.76201 -100.59529 36937 ft 487 kts 68°
2026-05-05 18:46 13.78337 -100.54189 36938 ft 487 kts 68°
2026-05-05 18:46 13.80911 -100.47757 36940 ft 487 kts 68°
2026-05-05 18:47 13.83910 -100.40260 36942 ft 487 kts 68°
2026-05-05 18:47 13.86478 -100.33839 36943 ft 487 kts 68°
2026-05-05 18:48 13.89030 -100.27403 36945 ft 487 kts 68°
2026-05-05 18:48 13.91602 -100.20971 36946 ft 488 kts 68°
2026-05-05 18:49 13.94182 -100.14522 36947 ft 488 kts 68°
2026-05-05 18:49 13.96757 -100.08087 36947 ft 488 kts 68°
2026-05-05 18:50 13.98909 -100.02714 36948 ft 488 kts 68°
2026-05-05 18:50 14.02248 -99.95346 36951 ft 488 kts 64°
2026-05-05 18:51 14.04729 -99.90143 36954 ft 488 kts 64°
2026-05-05 18:51 14.08207 -99.82837 36956 ft 488 kts 64°
2026-05-05 18:52 14.10693 -99.77612 36955 ft 488 kts 64°
2026-05-05 18:52 14.14180 -99.70317 36955 ft 488 kts 64°
2026-05-05 18:53 14.17160 -99.64057 36955 ft 488 kts 64°
2026-05-05 18:53 14.20134 -99.57805 36956 ft 488 kts 64°
2026-05-05 18:54 14.23120 -99.51525 36955 ft 488 kts 64°
2026-05-05 18:54 14.25597 -99.46319 36954 ft 488 kts 64°
2026-05-05 18:55 14.29070 -99.39016 36952 ft 488 kts 64°
2026-05-05 18:55 14.32006 -99.32833 36951 ft 488 kts 65°
2026-05-05 18:56 14.34980 -99.26527 36949 ft 488 kts 64°
2026-05-05 18:56 14.37954 -99.20266 36948 ft 488 kts 64°
2026-05-05 18:57 14.40936 -99.13997 36946 ft 488 kts 64°
2026-05-05 18:57 14.43925 -99.07711 36953 ft 488 kts 64°
2026-05-05 18:58 14.46905 -99.01447 36963 ft 488 kts 64°
2026-05-05 18:58 14.49887 -98.95178 36971 ft 488 kts 64°
2026-05-05 18:59 14.52871 -98.88901 36981 ft 488 kts 64°
2026-05-05 18:59 14.55859 -98.82620 36983 ft 488 kts 64°
2026-05-05 19:00 14.58841 -98.76349 36983 ft 488 kts 64°
2026-05-05 19:00 14.61825 -98.70077 36983 ft 488 kts 64°
2026-05-05 19:01 14.64816 -98.63788 36983 ft 488 kts 64°
2026-05-05 19:01 14.67795 -98.57524 36983 ft 488 kts 64°
2026-05-05 19:02 14.70280 -98.52299 36983 ft 488 kts 64°
2026-05-05 19:02 14.73763 -98.44976 36983 ft 488 kts 64°
2026-05-05 19:03 14.76758 -98.38680 36983 ft 488 kts 64°
2026-05-05 19:03 14.79730 -98.32415 36983 ft 488 kts 65°
2026-05-05 19:04 14.82701 -98.26120 36983 ft 488 kts 64°
2026-05-05 19:04 14.85661 -98.19891 36983 ft 488 kts 64°
2026-05-05 19:05 14.88623 -98.13663 36983 ft 488 kts 64°
2026-05-05 19:05 14.91604 -98.07395 36983 ft 488 kts 64°
2026-05-05 19:06 14.94588 -98.01121 36986 ft 488 kts 64°
2026-05-05 19:06 14.97575 -97.94840 36987 ft 487 kts 64°
2026-05-05 19:07 15.00050 -97.89637 36990 ft 487 kts 64°
2026-05-05 19:07 15.03522 -97.82338 36992 ft 487 kts 64°
2026-05-05 19:08 15.06013 -97.77100 36992 ft 487 kts 64°
2026-05-05 19:08 15.08990 -97.70840 36993 ft 486 kts 64°
2026-05-05 19:09 15.11933 -97.64674 36992 ft 486 kts 64°
2026-05-05 19:09 15.15403 -97.57394 36992 ft 486 kts 64°
2026-05-05 19:10 15.17877 -97.52197 36992 ft 486 kts 64°
2026-05-05 19:10 15.21332 -97.44931 36991 ft 486 kts 64°
2026-05-05 19:11 15.24292 -97.38709 36992 ft 486 kts 64°
2026-05-05 19:11 15.27236 -97.32503 36992 ft 486 kts 64°
2026-05-05 19:12 15.30167 -97.26290 36992 ft 486 kts 64°
2026-05-05 19:12 15.33109 -97.20100 36990 ft 486 kts 64°
2026-05-05 19:13 15.35574 -97.14915 36971 ft 486 kts 64°
2026-05-05 19:13 15.39011 -97.07690 36965 ft 486 kts 64°
2026-05-05 19:14 15.41969 -97.01469 36960 ft 486 kts 64°
2026-05-05 19:14 15.44919 -96.95268 36953 ft 485 kts 64°
2026-05-05 19:15 15.47380 -96.90092 36955 ft 485 kts 64°
2026-05-05 19:15 15.50810 -96.82881 36955 ft 485 kts 63°
2026-05-05 19:16 15.53738 -96.76726 36954 ft 485 kts 63°
2026-05-05 19:16 15.56167 -96.71619 36952 ft 485 kts 63°
2026-05-05 19:17 15.59512 -96.64585 36952 ft 485 kts 63°
2026-05-05 19:17 15.62403 -96.58507 36949 ft 485 kts 63°
2026-05-05 19:18 15.65294 -96.52427 36949 ft 485 kts 63°
2026-05-05 19:18 15.68191 -96.46334 36947 ft 485 kts 63°
2026-05-05 19:19 15.71064 -96.40292 36946 ft 485 kts 63°
2026-05-05 19:19 15.73940 -96.34242 36947 ft 485 kts 63°
2026-05-05 19:20 15.76814 -96.28152 36946 ft 485 kts 63°
2026-05-05 19:20 15.79993 -96.22376 36947 ft 484 kts 57°
2026-05-05 19:21 15.83458 -96.16541 36958 ft 484 kts 58°
2026-05-05 19:21 15.86906 -96.10733 36966 ft 484 kts 58°
2026-05-05 19:22 15.90370 -96.04866 36975 ft 484 kts 58°
2026-05-05 19:22 15.93821 -95.98995 36984 ft 484 kts 58°
2026-05-05 19:23 15.97277 -95.93114 36983 ft 484 kts 58°
2026-05-05 19:23 16.00726 -95.87244 36983 ft 484 kts 58°
2026-05-05 19:24 16.04194 -95.81343 36983 ft 484 kts 58°
2026-05-05 19:24 16.07658 -95.75447 36983 ft 484 kts 58°
2026-05-05 19:25 16.10952 -95.69844 36983 ft 484 kts 58°
2026-05-05 19:25 16.14506 -95.63820 36983 ft 484 kts 58°
2026-05-05 19:26 16.17936 -95.57985 36984 ft 484 kts 58°
2026-05-05 19:26 16.21375 -95.52132 36986 ft 484 kts 58°
2026-05-05 19:27 16.24803 -95.46297 36988 ft 484 kts 58°
2026-05-05 19:27 16.28267 -95.40403 36990 ft 484 kts 58°
2026-05-05 19:28 16.31672 -95.34606 36992 ft 484 kts 58°
2026-05-05 19:28 16.35087 -95.28741 36992 ft 484 kts 58°
2026-05-05 19:29 16.38548 -95.22846 36992 ft 484 kts 58°
2026-05-05 19:29 16.42006 -95.16961 36992 ft 484 kts 58°
2026-05-05 19:30 16.45344 -95.11114 36989 ft 485 kts 65°
2026-05-05 19:30 16.46281 -95.07904 37009 ft 485 kts 81°
2026-05-05 19:30 16.46586 -95.04441 36990 ft 487 kts 86°
2026-05-05 19:31 16.47021 -94.97488 36981 ft 487 kts 86°
2026-05-05 19:31 16.47399 -94.90576 36967 ft 487 kts 86°
2026-05-05 19:32 16.47760 -94.83786 36954 ft 487 kts 86°
2026-05-05 19:32 16.48125 -94.76866 36947 ft 487 kts 86°
2026-05-05 19:33 16.48488 -94.69987 36946 ft 487 kts 86°
2026-05-05 19:33 16.48848 -94.63140 36947 ft 487 kts 86°
2026-05-05 19:34 16.49209 -94.56288 36947 ft 488 kts 86°
2026-05-05 19:35 16.49758 -94.45886 36946 ft 488 kts 86°
2026-05-05 19:35 16.50121 -94.38977 36946 ft 488 kts 86°
2026-05-05 19:36 16.50472 -94.32211 36946 ft 488 kts 86°
2026-05-05 19:36 16.50821 -94.25265 36946 ft 488 kts 86°
2026-05-05 19:37 16.51180 -94.18418 36946 ft 488 kts 86°
2026-05-05 19:37 16.51541 -94.11551 36946 ft 489 kts 86°
2026-05-05 19:38 16.51904 -94.04663 36951 ft 489 kts 86°
2026-05-05 19:38 16.52206 -93.98936 36941 ft 489 kts 86°
2026-05-05 19:39 16.52628 -93.90920 36948 ft 489 kts 86°
2026-05-05 19:39 16.52965 -93.84527 36954 ft 489 kts 86°
2026-05-05 19:40 16.53283 -93.78482 36955 ft 489 kts 86°
2026-05-05 19:40 16.53645 -93.71610 36955 ft 489 kts 86°
2026-05-05 19:41 16.54006 -93.64761 36956 ft 489 kts 86°
2026-05-05 19:41 16.54365 -93.57948 36956 ft 489 kts 86°
2026-05-05 19:42 16.54736 -93.50880 36955 ft 489 kts 86°
2026-05-05 19:42 16.55114 -93.43674 36956 ft 488 kts 86°
2026-05-05 19:43 16.55472 -93.36728 36956 ft 488 kts 86°
2026-05-05 19:43 16.55790 -93.29851 36955 ft 488 kts 86°
2026-05-05 19:44 16.56113 -93.22926 36955 ft 488 kts 86°
2026-05-05 19:44 16.56430 -93.16209 36955 ft 488 kts 86°
2026-05-05 19:45 16.56764 -93.09170 36954 ft 488 kts 86°
2026-05-05 19:45 16.57386 -93.02237 36951 ft 486 kts 73°
2026-05-05 19:46 16.59470 -92.96154 36941 ft 487 kts 70°
2026-05-05 19:46 16.61584 -92.89895 36931 ft 486 kts 69°
2026-05-05 19:47 16.63732 -92.83588 36928 ft 486 kts 70°
2026-05-05 19:47 16.65855 -92.77358 36923 ft 486 kts 69°
2026-05-05 19:48 16.68019 -92.71005 36917 ft 486 kts 69°
2026-05-05 19:48 16.70130 -92.64808 36911 ft 486 kts 69°
2026-05-05 19:49 16.72332 -92.58344 36905 ft 486 kts 69°
2026-05-05 19:49 16.74579 -92.51748 36898 ft 486 kts 69°
2026-05-05 19:50 16.76748 -92.45385 36892 ft 486 kts 69°
2026-05-05 19:50 16.79123 -92.38412 36885 ft 486 kts 69°
2026-05-05 19:51 16.81335 -92.31890 36882 ft 486 kts 70°
2026-05-05 19:51 16.83538 -92.25365 36883 ft 486 kts 70°
2026-05-05 19:52 16.85768 -92.18811 36882 ft 486 kts 69°
2026-05-05 19:52 16.87988 -92.12294 36878 ft 486 kts 69°
2026-05-05 19:53 16.90226 -92.05726 36871 ft 486 kts 69°
2026-05-05 19:53 16.92460 -91.99169 36862 ft 486 kts 69°
2026-05-05 19:54 16.94701 -91.92592 36856 ft 486 kts 69°
2026-05-05 19:54 16.96924 -91.86066 36855 ft 485 kts 69°
2026-05-05 19:55 16.99149 -91.79534 36855 ft 485 kts 69°
2026-05-05 19:55 17.01331 -91.73129 36854 ft 485 kts 69°
2026-05-05 19:56 17.03562 -91.66583 36855 ft 485 kts 69°
2026-05-05 19:56 17.05796 -91.60025 36855 ft 485 kts 69°
2026-05-05 19:57 17.08030 -91.53469 36854 ft 485 kts 69°
2026-05-05 19:57 17.10240 -91.46980 36855 ft 485 kts 69°
2026-05-05 19:58 17.12505 -91.40384 36855 ft 485 kts 69°
2026-05-05 19:58 17.14728 -91.33867 36855 ft 484 kts 69°
2026-05-05 19:59 17.16940 -91.27291 36855 ft 484 kts 69°
2026-05-05 19:59 17.19170 -91.20732 36855 ft 484 kts 69°
2026-05-05 20:00 17.21405 -91.14170 36875 ft 484 kts 69°
2026-05-05 20:00 17.23642 -91.07605 36896 ft 484 kts 69°
2026-05-05 20:01 17.25861 -91.01092 36917 ft 484 kts 69°
2026-05-05 20:01 17.28092 -90.94545 36938 ft 484 kts 69°
2026-05-05 20:02 17.30333 -90.87968 36961 ft 484 kts 69°
2026-05-05 20:02 17.32564 -90.81417 36982 ft 483 kts 69°
2026-05-05 20:03 17.34805 -90.74840 37004 ft 483 kts 69°
2026-05-05 20:03 17.37047 -90.68259 37031 ft 480 kts 69°
2026-05-05 20:04 17.39249 -90.61798 37023 ft 472 kts 69°
2026-05-05 20:04 17.41444 -90.55354 37045 ft 472 kts 69°
2026-05-05 20:05 17.42659 -90.48690 36876 ft 480 kts 94°
2026-05-05 20:05 17.42258 -90.45260 36346 ft 476 kts 93°
2026-05-05 20:05 17.42139 -90.41859 35730 ft 467 kts 87°
2026-05-05 20:05 17.42223 -90.38510 35110 ft 462 kts 86°
2026-05-05 20:06 17.42319 -90.35170 34488 ft 457 kts 86°
2026-05-05 20:06 17.42421 -90.31934 33881 ft 453 kts 87°
2026-05-05 20:06 17.42526 -90.28683 33265 ft 449 kts 86°
2026-05-05 20:06 17.42642 -90.25458 32650 ft 445 kts 86°
2026-05-05 20:07 17.42761 -90.22253 32035 ft 442 kts 86°
2026-05-05 20:07 17.42880 -90.19082 31420 ft 438 kts 86°
2026-05-05 20:07 17.42999 -90.15932 30804 ft 435 kts 86°
2026-05-05 20:07 17.43119 -90.12776 30183 ft 431 kts 86°
2026-05-05 20:08 17.43237 -90.09662 29565 ft 427 kts 86°
2026-05-05 20:08 17.43353 -90.06583 28947 ft 423 kts 86°
2026-05-05 20:08 17.43468 -90.03548 28330 ft 418 kts 86°
2026-05-05 20:08 17.43583 -90.00538 27711 ft 413 kts 86°
2026-05-05 20:09 17.43696 -89.97562 27091 ft 409 kts 86°
2026-05-05 20:09 17.43807 -89.94624 26473 ft 404 kts 86°
2026-05-05 20:09 17.43919 -89.91692 25848 ft 399 kts 86°
2026-05-05 20:09 17.44028 -89.88827 25229 ft 394 kts 86°
2026-05-05 20:10 17.44135 -89.85980 24608 ft 390 kts 86°
2026-05-05 20:10 17.44242 -89.83174 23986 ft 385 kts 86°
2026-05-05 20:10 17.44348 -89.80394 23358 ft 381 kts 86°
2026-05-05 20:10 17.44451 -89.77694 22745 ft 379 kts 86°
2026-05-05 20:11 17.44555 -89.74956 22121 ft 375 kts 86°
2026-05-05 20:11 17.44658 -89.72236 21495 ft 372 kts 86°
2026-05-05 20:11 17.44760 -89.69556 20872 ft 369 kts 86°
2026-05-05 20:11 17.44860 -89.66906 20250 ft 365 kts 86°
2026-05-05 20:12 17.44961 -89.64268 19628 ft 363 kts 86°
2026-05-05 20:12 17.45060 -89.61655 19005 ft 360 kts 86°
2026-05-05 20:12 17.45159 -89.59056 18380 ft 357 kts 86°
2026-05-05 20:12 17.45256 -89.56483 17758 ft 354 kts 86°
2026-05-05 20:13 17.45354 -89.53907 17130 ft 352 kts 86°
2026-05-05 20:13 17.45451 -89.51374 16532 ft 349 kts 87°
2026-05-05 20:13 17.45546 -89.48860 16030 ft 346 kts 87°
2026-05-05 20:13 17.45641 -89.46362 15533 ft 344 kts 87°
2026-05-05 20:14 17.45736 -89.43870 15035 ft 342 kts 87°
2026-05-05 20:14 17.45830 -89.41399 14538 ft 340 kts 87°
2026-05-05 20:14 17.45923 -89.38940 14041 ft 337 kts 87°
2026-05-05 20:14 17.46016 -89.36479 13540 ft 336 kts 87°
2026-05-05 20:15 17.46107 -89.34059 13043 ft 332 kts 88°
2026-05-05 20:15 17.46188 -89.31676 12539 ft 325 kts 88°
2026-05-05 20:15 17.46269 -89.29347 12034 ft 319 kts 88°
2026-05-05 20:15 17.46353 -89.27059 11531 ft 313 kts 88°
2026-05-05 20:16 17.46436 -89.24812 11029 ft 307 kts 88°
2026-05-05 20:16 17.46519 -89.22602 10528 ft 302 kts 88°
2026-05-05 20:16 17.46601 -89.20421 10025 ft 297 kts 88°
2026-05-05 20:16 17.46682 -89.18287 9522 ft 291 kts 88°
2026-05-05 20:17 17.46760 -89.16231 9085 ft 279 kts 89°
2026-05-05 20:17 17.46836 -89.14217 8700 ft 276 kts 89°
2026-05-05 20:17 17.46911 -89.12241 8336 ft 274 kts 89°
2026-05-05 20:17 17.46985 -89.10260 7971 ft 272 kts 89°
2026-05-05 20:18 17.47060 -89.08287 7602 ft 271 kts 89°
2026-05-05 20:18 17.47135 -89.06321 7287 ft 268 kts 89°
2026-05-05 20:18 17.47209 -89.04374 7042 ft 267 kts 89°
2026-05-05 20:18 17.47283 -89.02443 6794 ft 266 kts 89°
2026-05-05 20:19 17.47356 -89.00516 6544 ft 262 kts 89°
2026-05-05 20:19 17.47427 -88.98658 6277 ft 251 kts 89°
2026-05-05 20:19 17.47495 -88.96875 6009 ft 241 kts 89°
2026-05-05 20:19 17.47560 -88.95172 5797 ft 230 kts 89°
2026-05-05 20:20 17.47622 -88.93509 5730 ft 224 kts 89°
2026-05-05 20:20 17.47683 -88.91916 5603 ft 218 kts 89°
2026-05-05 20:20 17.47742 -88.90345 5473 ft 216 kts 89°
2026-05-05 20:20 17.47802 -88.88780 5349 ft 215 kts 89°
2026-05-05 20:21 17.47861 -88.87219 5223 ft 215 kts 89°
2026-05-05 20:21 17.47920 -88.85660 5098 ft 214 kts 89°
2026-05-05 20:21 17.47979 -88.84104 4973 ft 214 kts 89°
2026-05-05 20:21 17.48038 -88.82543 4847 ft 213 kts 89°
2026-05-05 20:22 17.48097 -88.80999 4722 ft 213 kts 89°
2026-05-05 20:22 17.48155 -88.79459 4597 ft 212 kts 89°
2026-05-05 20:22 17.48214 -88.77918 4473 ft 212 kts 89°
2026-05-05 20:22 17.48272 -88.76383 4347 ft 211 kts 89°
2026-05-05 20:23 17.48329 -88.74900 4219 ft 195 kts 89°
2026-05-05 20:23 17.48381 -88.73523 4142 ft 186 kts 89°
2026-05-05 20:23 17.48433 -88.72174 4049 ft 183 kts 89°
2026-05-05 20:23 17.48483 -88.70845 3913 ft 183 kts 89°
2026-05-05 20:24 17.48534 -88.69526 3778 ft 182 kts 89°
2026-05-05 20:24 17.48585 -88.68212 3651 ft 181 kts 89°
2026-05-05 20:24 17.48635 -88.66904 3525 ft 180 kts 89°
2026-05-05 20:24 17.48685 -88.65594 3397 ft 180 kts 89°
2026-05-05 20:25 17.48735 -88.64288 3271 ft 180 kts 89°
2026-05-05 20:25 17.48785 -88.62982 3145 ft 179 kts 88°
2026-05-05 20:25 17.48834 -88.61683 3019 ft 179 kts 89°
2026-05-05 20:25 17.48883 -88.60384 2915 ft 178 kts 89°
2026-05-05 20:26 17.48932 -88.59091 2841 ft 178 kts 89°
2026-05-05 20:26 17.48981 -88.57795 2766 ft 178 kts 89°
2026-05-05 20:26 17.49029 -88.56503 2690 ft 178 kts 89°
2026-05-05 20:26 17.49077 -88.55213 2612 ft 178 kts 89°
2026-05-05 20:27 17.49126 -88.53915 2551 ft 177 kts 89°
2026-05-05 20:27 17.49203 -88.52634 2552 ft 178 kts 83°
2026-05-05 20:27 17.49447 -88.51363 2554 ft 178 kts 78°
2026-05-05 20:27 17.49710 -88.50100 2553 ft 178 kts 79°
2026-05-05 20:28 17.49974 -88.48833 2550 ft 178 kts 78°
2026-05-05 20:28 17.50264 -88.47571 2521 ft 178 kts 77°
2026-05-05 20:28 17.50560 -88.46328 2641 ft 179 kts 78°
2026-05-05 20:28 17.50855 -88.45055 2714 ft 179 kts 77°
2026-05-05 20:29 17.51144 -88.43790 2733 ft 181 kts 78°
2026-05-05 20:29 17.51430 -88.42555 2582 ft 165 kts 78°
2026-05-05 20:29 17.51665 -88.41441 2327 ft 149 kts 79°
2026-05-05 20:29 17.51865 -88.40390 1927 ft 147 kts 79°
2026-05-05 20:30 17.52084 -88.39384 1687 ft 139 kts 77°
2026-05-05 20:30 17.52312 -88.38391 1502 ft 140 kts 78°
2026-05-05 20:30 17.52524 -88.37387 1280 ft 141 kts 78°
2026-05-05 20:30 17.52728 -88.36400 1111 ft 141 kts 79°
2026-05-05 20:31 17.52932 -88.35403 888 ft 139 kts 78°
2026-05-05 20:31 17.53137 -88.34427 725 ft 139 kts 77°
2026-05-05 20:31 17.53347 -88.33435 491 ft 139 kts 79°
2026-05-05 20:31 17.53567 -88.32461 252 ft 138 kts 79°
2026-05-05 20:32 17.53766 -88.31482 40 ft 136 kts 78°
2026-05-05 20:32 17.53943 -88.30668 30 ft 90 kts 76°
2026-05-05 20:32 17.54063 -88.30107 30 ft 55 kts 81°
2026-05-05 20:32 17.54092 -88.29890 29 ft 2 kts 83°
2026-05-05 20:33 17.54097 -88.29880 29 ft 8 kts 47°
2026-05-05 20:33 17.54120 -88.29954 29 ft 29 kts 246°
2026-05-05 20:33 17.54030 -88.30269 30 ft 52 kts 256°
2026-05-05 20:34 17.53949 -88.30637 29 ft 51 kts 257°
2026-05-05 20:34 17.53871 -88.30870 29 ft 20 kts 195°
2026-05-05 20:34 17.53753 -88.30832 30 ft 17 kts 136°
2026-05-05 20:34 17.53708 -88.30806 29 ft 1 kts 165°
2026-05-05 20:35 17.53697 -88.30803 29 ft 0 kts 165°